Observation data for Tarzan on 02/21/2019      Previous  Date  Next       Current Mesonet Observations  Soil Data  Daily Summary Page  Observations in Plain Language
KTA1 210600Z 16008KT 06/M05 A2986 RMK A01 T00601054  RH  044%=      5-min Rain = 0
KTA1 210601Z 16007KT 06/M05 A2986 RMK A01 T00601054  RH  043%=      5-min Rain = 0
KTA1 210602Z 16008KT 06/M05 A2986 RMK A01 T00611054  RH  043%=      5-min Rain = 0
KTA1 210603Z 16007KT 06/M05 A2985 RMK A01 T00621054  RH  043%=      5-min Rain = 0
KTA1 210604Z 16009KT 06/M05 A2985 RMK A01 T00621053  RH  043%=      5-min Rain = 0
KTA1 210605Z 16009KT 06/M05 A2985 RMK A01 T00631053  RH  043%=      5-min Rain = 0
KTA1 210606Z 16008KT 06/M05 A2985 RMK A01 T00631053  RH  043%=      5-min Rain = 0
KTA1 210607Z 16009KT 06/M05 A2985 RMK A01 T00641053  RH  043%=      5-min Rain = 0
KTA1 210608Z 17008KT 06/M05 A2986 RMK A01 T00641053  RH  043%=      5-min Rain = 0
KTA1 210609Z 16008KT 06/M05 A2986 RMK A01 T00641053  RH  043%=      5-min Rain = 0
KTA1 210610Z 16008KT 06/M05 A2986 RMK A01 T00641053  RH  043%=      5-min Rain = 0
KTA1 210611Z 16009KT 06/M05 A2985 RMK A01 T00641053  RH  043%=      5-min Rain = 0
KTA1 210612Z 16008KT 07/M05 A2985 RMK A01 T00651052  RH  043%=      5-min Rain = 0
KTA1 210613Z 16009KT 07/M05 A2985 RMK A01 T00651052  RH  043%=      5-min Rain = 0
KTA1 210614Z 16009KT 07/M05 A2985 RMK A01 T00651052  RH  043%=      5-min Rain = 0
KTA1 210615Z 16009KT 07/M05 A2985 RMK A01 T00661052  RH  043%=      5-min Rain = 0
KTA1 210616Z 17008KT 07/M05 A2985 RMK A01 T00661052  RH  043%=      5-min Rain = 0
KTA1 210617Z 17009KT 07/M05 A2985 RMK A01 T00671052  RH  043%=      5-min Rain = 0
KTA1 210618Z 16010KT 07/M05 A2985 RMK A01 T00671051  RH  043%=      5-min Rain = 0
KTA1 210619Z 16009KT 07/M05 A2985 RMK A01 T00691050  RH  042%=      5-min Rain = 0
KTA1 210620Z 16009KT 07/M05 A2985 RMK A01 T00691050  RH  042%=      5-min Rain = 0
KTA1 210621Z 16010KT 07/M05 A2985 RMK A01 T00701050  RH  042%=      5-min Rain = 0
KTA1 210622Z 16009KT 07/M05 A2985 RMK A01 T00701050  RH  042%=      5-min Rain = 0
KTA1 210623Z 16010KT 07/M05 A2985 RMK A01 T00711050  RH  042%=      5-min Rain = 0
KTA1 210624Z 17009KT 07/M05 A2985 RMK A01 T00711049  RH  042%=      5-min Rain = 0
KTA1 210625Z 16010KT 07/M05 A2985 RMK A01 T00721049  RH  042%=      5-min Rain = 0
KTA1 210626Z 17010KT 07/M05 A2985 RMK A01 T00721049  RH  042%=      5-min Rain = 0
KTA1 210627Z 17010KT 07/M05 A2985 RMK A01 T00731049  RH  042%=      5-min Rain = 0
KTA1 210628Z 17009KT 07/M05 A2985 RMK A01 T00731049  RH  042%=      5-min Rain = 0
KTA1 210629Z 17010KT 07/M05 A2985 RMK A01 T00731049  RH  042%=      5-min Rain = 0
KTA1 210630Z 17010KT 07/M05 A2985 RMK A01 T00741048  RH  042%=      5-min Rain = 0
KTA1 210631Z 17010KT 07/M05 A2985 RMK A01 T00741048  RH  042%=      5-min Rain = 0
KTA1 210632Z 17010KT 08/M05 A2985 RMK A01 T00751048  RH  041%=      5-min Rain = 0
KTA1 210633Z 17010KT 08/M05 A2985 RMK A01 T00751048  RH  041%=      5-min Rain = 0
KTA1 210634Z 17010KT 08/M05 A2985 RMK A01 T00751048  RH  041%=      5-min Rain = 0
KTA1 210635Z 17009KT 08/M05 A2985 RMK A01 T00751048  RH  041%=      5-min Rain = 0
KTA1 210636Z 17010KT 08/M05 A2985 RMK A01 T00751048  RH  041%=      5-min Rain = 0
KTA1 210637Z 17011KT 08/M05 A2985 RMK A01 T00751048  RH  041%=      5-min Rain = 0
KTA1 210638Z 16012KT 08/M05 A2985 RMK A01 T00761047  RH  041%=      5-min Rain = 0
KTA1 210639Z 16011KT 08/M05 A2985 RMK A01 T00761047  RH  041%=      5-min Rain = 0
KTA1 210640Z 17011KT 08/M05 A2985 RMK A01 T00761047  RH  041%=      5-min Rain = 0
KTA1 210641Z 17010KT 08/M05 A2985 RMK A01 T00761047  RH  041%=      5-min Rain = 0
KTA1 210642Z 17010KT 08/M05 A2985 RMK A01 T00771047  RH  041%=      5-min Rain = 0
KTA1 210643Z 17009KT 08/M05 A2985 RMK A01 T00771047  RH  041%=      5-min Rain = 0
KTA1 210644Z 17011KT 08/M05 A2985 RMK A01 T00761047  RH  041%=      5-min Rain = 0
KTA1 210645Z 17010KT 08/M05 A2985 RMK A01 T00771046  RH  041%=      5-min Rain = 0
KTA1 210646Z 16010KT 08/M05 A2985 RMK A01 T00761047  RH  041%=      5-min Rain = 0
KTA1 210647Z 17012KT 08/M05 A2985 RMK A01 T00771046  RH  041%=      5-min Rain = 0
KTA1 210648Z 17011KT 08/M05 A2985 RMK A01 T00771046  RH  041%=      5-min Rain = 0
KTA1 210649Z 17011KT 08/M05 A2985 RMK A01 T00771046  RH  041%=      5-min Rain = 0
KTA1 210650Z 17011KT 08/M05 A2985 RMK A01 T00771046  RH  041%=      5-min Rain = 0
KTA1 210651Z 16011KT 08/M05 A2985 RMK A01 T00771046  RH  041%=      5-min Rain = 0
KTA1 210652Z 16010KT 08/M05 A2985 RMK A01 T00771046  RH  041%=      5-min Rain = 0
KTA1 210653Z 17011KT 08/M05 A2985 RMK A01 T00781046  RH  041%=      5-min Rain = 0
KTA1 210654Z 17011KT 08/M05 A2985 RMK A01 T00781046  RH  041%=      5-min Rain = 0
KTA1 210655Z 17011KT 08/M05 A2985 RMK A01 T00781046  RH  041%=      5-min Rain = 0
KTA1 210656Z 17011KT 08/M05 A2985 RMK A01 T00771046  RH  041%=      5-min Rain = 0
KTA1 210657Z 17011KT 08/M05 A2985 RMK A01 T00781046  RH  041%=      5-min Rain = 0
KTA1 210658Z 16010KT 08/M05 A2985 RMK A01 T00781045  RH  041%=      5-min Rain = 0
KTA1 210659Z 17010KT 08/M05 A2985 RMK A01 T00781045  RH  041%=      5-min Rain = 0
KTA1 210700Z 16010KT 08/M05 A2985 RMK A01 T00781045  RH  041%=      5-min Rain = 0
KTA1 210701Z 17010KT 08/M05 A2985 RMK A01 T00781045  RH  041%=      5-min Rain = 0
KTA1 210702Z 17009KT 08/M05 A2985 RMK A01 T00781045  RH  041%=      5-min Rain = 0
KTA1 210703Z 17012KT 08/M05 A2985 RMK A01 T00781045  RH  041%=      5-min Rain = 0
KTA1 210704Z 17011KT 08/M05 A2986 RMK A01 T00781045  RH  041%=      5-min Rain = 0
KTA1 210705Z 17011KT 08/M05 A2986 RMK A01 T00781045  RH  041%=      5-min Rain = 0
KTA1 210706Z 17010KT 08/M05 A2986 RMK A01 T00781045  RH  041%=      5-min Rain = 0
KTA1 210707Z 17012KT 08/M05 A2986 RMK A01 T00781045  RH  041%=      5-min Rain = 0
KTA1 210708Z 17010KT 08/M05 A2986 RMK A01 T00791045  RH  041%=      5-min Rain = 0
KTA1 210709Z 17012KT 08/M04 A2985 RMK A01 T00791044  RH  041%=      5-min Rain = 0
KTA1 210710Z 17012KT 08/M04 A2985 RMK A01 T00791044  RH  041%=      5-min Rain = 0
KTA1 210711Z 16012KT 08/M04 A2985 RMK A01 T00801044  RH  041%=      5-min Rain = 0
KTA1 210712Z 17011KT 08/M04 A2985 RMK A01 T00801044  RH  041%=      5-min Rain = 0
KTA1 210713Z 17010KT 08/M04 A2985 RMK A01 T00801044  RH  041%=      5-min Rain = 0
KTA1 210714Z 17010KT 08/M04 A2985 RMK A01 T00801044  RH  041%=      5-min Rain = 0
KTA1 210715Z 16011KT 08/M04 A2985 RMK A01 T00801044  RH  041%=      5-min Rain = 0
KTA1 210721Z 17010KT 08/M04 A2985 RMK A01 T00801044  RH  041%=      5-min Rain = 0
KTA1 210722Z 17010KT 08/M04 A2985 RMK A01 T00801044  RH  041%=      5-min Rain = 0
KTA1 210723Z 17012KT 08/M04 A2985 RMK A01 T00801044  RH  041%=      5-min Rain = 0
KTA1 210724Z 17012KT 08/M04 A2985 RMK A01 T00801044  RH  041%=      5-min Rain = 0
KTA1 210725Z 16012KT 08/M04 A2985 RMK A01 T00811044  RH  041%=      5-min Rain = 0
KTA1 210726Z 17012KT 08/M04 A2985 RMK A01 T00811044  RH  041%=      5-min Rain = 0
KTA1 210727Z 17011KT 08/M04 A2985 RMK A01 T00821044  RH  041%=      5-min Rain = 0
KTA1 210728Z 17013KT 08/M04 A2985 RMK A01 T00821044  RH  041%=      5-min Rain = 0
KTA1 210729Z 17013KT 08/M04 A2985 RMK A01 T00821044  RH  041%=      5-min Rain = 0
KTA1 210730Z 17013KT 08/M04 A2985 RMK A01 T00821044  RH  041%=      5-min Rain = 0
KTA1 210731Z 17012KT 08/M04 A2985 RMK A01 T00831044  RH  040%=      5-min Rain = 0
KTA1 210732Z 17012KT 08/M04 A2985 RMK A01 T00831044  RH  040%=      5-min Rain = 0
KTA1 210733Z 17013KT 08/M04 A2985 RMK A01 T00831044  RH  040%=      5-min Rain = 0
KTA1 210734Z 17014KT 08/M04 A2985 RMK A01 T00831044  RH  040%=      5-min Rain = 0
KTA1 210735Z 17013KT 08/M04 A2985 RMK A01 T00841044  RH  040%=      5-min Rain = 0
KTA1 210736Z 17012KT 08/M05 A2985 RMK A01 T00841045  RH  040%=      5-min Rain = 0
KTA1 210737Z 17012KT 08/M05 A2985 RMK A01 T00841045  RH  040%=      5-min Rain = 0
KTA1 210738Z 17012KT 08/M04 A2985 RMK A01 T00841044  RH  040%=      5-min Rain = 0
KTA1 210739Z 16011KT 08/M05 A2985 RMK A01 T00841045  RH  040%=      5-min Rain = 0
KTA1 210740Z 17011KT 08/M04 A2985 RMK A01 T00841044  RH  040%=      5-min Rain = 0
KTA1 210741Z 17012KT 08/M04 A2985 RMK A01 T00841044  RH  040%=      5-min Rain = 0
KTA1 210742Z 17012KT 08/M04 A2985 RMK A01 T00841044  RH  040%=      5-min Rain = 0
KTA1 210743Z 16013KT 09/M04 A2985 RMK A01 T00851044  RH  040%=      5-min Rain = 0
KTA1 210744Z 17012KT 09/M05 A2985 RMK A01 T00851045  RH  040%=      5-min Rain = 0
KTA1 210745Z 17013KT 09/M05 A2985 RMK A01 T00851045  RH  040%=      5-min Rain = 0
KTA1 210746Z 17014KT 09/M05 A2985 RMK A01 T00851045  RH  040%=      5-min Rain = 0
KTA1 210747Z 17013KT 09/M04 A2985 RMK A01 T00861044  RH  039%=      5-min Rain = 0
KTA1 210748Z 17014KT 09/M05 A2985 RMK A01 T00861045  RH  039%=      5-min Rain = 0
KTA1 210749Z 17013KT 09/M05 A2985 RMK A01 T00861045  RH  039%=      5-min Rain = 0
KTA1 210750Z 17013KT 09/M05 A2985 RMK A01 T00861045  RH  039%=      5-min Rain = 0
KTA1 210751Z 17011KT 09/M05 A2985 RMK A01 T00861045  RH  039%=      5-min Rain = 0
KTA1 210752Z 17012KT 09/M04 A2985 RMK A01 T00861044  RH  040%=      5-min Rain = 0
KTA1 210753Z 17013KT 09/M05 A2985 RMK A01 T00851045  RH  040%=      5-min Rain = 0
KTA1 210754Z 17013KT 09/M04 A2986 RMK A01 T00861044  RH  040%=      5-min Rain = 0
KTA1 210755Z 17012KT 09/M04 A2986 RMK A01 T00861044  RH  039%=      5-min Rain = 0
KTA1 210756Z 17011KT 09/M04 A2986 RMK A01 T00861044  RH  039%=      5-min Rain = 0
KTA1 210757Z 17011G16KT 09/M04 A2986 RMK A01 T00861044  RH  040%=      5-min Rain = 0
KTA1 210758Z 17012KT 09/M04 A2985 RMK A01 T00861044  RH  040%=      5-min Rain = 0
KTA1 210759Z 17013KT 09/M04 A2985 RMK A01 T00861044  RH  040%=      5-min Rain = 0
KTA1 210800Z 17010KT 09/M04 A2985 RMK A01 T00861044  RH  039%=      5-min Rain = 0
KTA1 210801Z 16010KT 09/M04 A2985 RMK A01 T00861044  RH  039%=      5-min Rain = 0
KTA1 210802Z 17012KT 09/M04 A2985 RMK A01 T00861044  RH  040%=      5-min Rain = 0
KTA1 210803Z 17013KT 09/M04 A2985 RMK A01 T00851044  RH  040%=      5-min Rain = 0
KTA1 210804Z 17010KT 09/M04 A2985 RMK A01 T00861044  RH  040%=      5-min Rain = 0
KTA1 210805Z 16012KT 09/M04 A2985 RMK A01 T00861043  RH  040%=      5-min Rain = 0
KTA1 210806Z 17012KT 09/M04 A2985 RMK A01 T00861043  RH  040%=      5-min Rain = 0
KTA1 210807Z 16012G17KT 09/M04 A2985 RMK A01 T00861043  RH  040%=      5-min Rain = 0
KTA1 210808Z 16011KT 09/M04 A2985 RMK A01 T00861043  RH  040%=      5-min Rain = 0
KTA1 210809Z 16011KT 09/M04 A2985 RMK A01 T00861043  RH  040%=      5-min Rain = 0
KTA1 210810Z 16010KT 09/M04 A2985 RMK A01 T00851043  RH  040%=      5-min Rain = 0
KTA1 210811Z 16010KT 09/M04 A2985 RMK A01 T00851043  RH  040%=      5-min Rain = 0
KTA1 210812Z 16012KT 09/M04 A2984 RMK A01 T00851043  RH  040%=      5-min Rain = 0
KTA1 210813Z 16012KT 09/M04 A2984 RMK A01 T00851043  RH  040%=      5-min Rain = 0
KTA1 210814Z 16013KT 08/M04 A2984 RMK A01 T00841043  RH  040%=      5-min Rain = 0
KTA1 210815Z 16010KT 08/M04 A2984 RMK A01 T00841043  RH  040%=      5-min Rain = 0
KTA1 210816Z 16011KT 08/M04 A2984 RMK A01 T00841043  RH  040%=      5-min Rain = 0
KTA1 210817Z 17011KT 08/M04 A2984 RMK A01 T00841043  RH  041%=      5-min Rain = 0
KTA1 210818Z 16012KT 08/M04 A2984 RMK A01 T00841042  RH  041%=      5-min Rain = 0
KTA1 210819Z 16012KT 08/M04 A2984 RMK A01 T00841042  RH  041%=      5-min Rain = 0
KTA1 210820Z 17011G16KT 08/M04 A2984 RMK A01 T00841042  RH  041%=      5-min Rain = 0
KTA1 210821Z 17012G18KT 08/M04 A2984 RMK A01 T00841042  RH  041%=      5-min Rain = 0
KTA1 210822Z 17011KT 08/M04 A2984 RMK A01 T00841041  RH  041%=      5-min Rain = 0
KTA1 210823Z 17013KT 08/M04 A2984 RMK A01 T00841041  RH  041%=      5-min Rain = 0
KTA1 210824Z 17013KT 08/M04 A2984 RMK A01 T00841041  RH  041%=      5-min Rain = 0
KTA1 210825Z 17012KT 08/M04 A2984 RMK A01 T00841041  RH  041%=      5-min Rain = 0
KTA1 210826Z 17010KT 08/M04 A2984 RMK A01 T00841041  RH  041%=      5-min Rain = 0
KTA1 210827Z 17012KT 08/M04 A2984 RMK A01 T00831041  RH  041%=      5-min Rain = 0
KTA1 210828Z 17013KT 08/M04 A2984 RMK A01 T00831041  RH  041%=      5-min Rain = 0
KTA1 210829Z 17014KT 08/M04 A2984 RMK A01 T00831040  RH  041%=      5-min Rain = 0
KTA1 210830Z 17013KT 08/M04 A2984 RMK A01 T00831040  RH  041%=      5-min Rain = 0
KTA1 210831Z 16012KT 08/M04 A2984 RMK A01 T00841040  RH  041%=      5-min Rain = 0
KTA1 210832Z 17013KT 08/M04 A2984 RMK A01 T00841040  RH  041%=      5-min Rain = 0
KTA1 210833Z 17011KT 08/M04 A2985 RMK A01 T00841040  RH  041%=      5-min Rain = 0
KTA1 210834Z 17013KT 08/M04 A2984 RMK A01 T00831040  RH  041%=      5-min Rain = 0
KTA1 210835Z 17011KT 08/M04 A2984 RMK A01 T00831040  RH  042%=      5-min Rain = 0
KTA1 210836Z 17011KT 08/M04 A2984 RMK A01 T00831040  RH  042%=      5-min Rain = 0
KTA1 210837Z 17013KT 08/M04 A2984 RMK A01 T00821040  RH  042%=      5-min Rain = 0
KTA1 210838Z 17012KT 08/M04 A2984 RMK A01 T00821040  RH  042%=      5-min Rain = 0
KTA1 210839Z 17010KT 08/M04 A2984 RMK A01 T00821040  RH  042%=      5-min Rain = 0
KTA1 210840Z 17012KT 08/M04 A2984 RMK A01 T00821040  RH  042%=      5-min Rain = 0
KTA1 210841Z 17011KT 08/M04 A2984 RMK A01 T00821040  RH  042%=      5-min Rain = 0
KTA1 210842Z 17010G15KT 08/M04 A2984 RMK A01 T00821040  RH  042%=      5-min Rain = 0
KTA1 210843Z 17011KT 08/M04 A2984 RMK A01 T00821040  RH  042%=      5-min Rain = 0
KTA1 210844Z 17011KT 08/M04 A2984 RMK A01 T00811040  RH  042%=      5-min Rain = 0
KTA1 210845Z 17010KT 08/M04 A2984 RMK A01 T00811040  RH  042%=      5-min Rain = 0
KTA1 210846Z 17011KT 08/M04 A2984 RMK A01 T00811040  RH  042%=      5-min Rain = 0
KTA1 210847Z 17011KT 08/M04 A2984 RMK A01 T00811040  RH  042%=      5-min Rain = 0
KTA1 210848Z 17010KT 08/M04 A2984 RMK A01 T00811040  RH  042%=      5-min Rain = 0
KTA1 210849Z 17009KT 08/M04 A2984 RMK A01 T00801040  RH  042%=      5-min Rain = 0
KTA1 210850Z 17011KT 08/M04 A2984 RMK A01 T00801040  RH  042%=      5-min Rain = 0
KTA1 210851Z 17013KT 08/M04 A2984 RMK A01 T00801040  RH  043%=      5-min Rain = 0
KTA1 210852Z 17012KT 08/M04 A2985 RMK A01 T00791040  RH  042%=      5-min Rain = 0
KTA1 210853Z 17013KT 08/M04 A2985 RMK A01 T00791041  RH  042%=      5-min Rain = 0
KTA1 210854Z 17011KT 08/M04 A2985 RMK A01 T00791040  RH  042%=      5-min Rain = 0
KTA1 210855Z 17011KT 08/M04 A2984 RMK A01 T00791040  RH  043%=      5-min Rain = 0
KTA1 210856Z 17011KT 08/M04 A2984 RMK A01 T00791040  RH  043%=      5-min Rain = 0
KTA1 210857Z 17013KT 08/M04 A2984 RMK A01 T00791040  RH  043%=      5-min Rain = 0
KTA1 210858Z 17011KT 08/M04 A2984 RMK A01 T00791040  RH  043%=      5-min Rain = 0
KTA1 210859Z 17012KT 08/M04 A2984 RMK A01 T00791040  RH  043%=      5-min Rain = 0
KTA1 210900Z 17012KT 08/M04 A2984 RMK A01 T00781040  RH  043%=      5-min Rain = 0
KTA1 210901Z 17011KT 08/M04 A2984 RMK A01 T00781040  RH  043%=      5-min Rain = 0
KTA1 210902Z 17011KT 08/M04 A2984 RMK A01 T00781040  RH  043%=      5-min Rain = 0
KTA1 210903Z 17012KT 08/M04 A2984 RMK A01 T00781040  RH  043%=      5-min Rain = 0
KTA1 210904Z 17012KT 08/M04 A2984 RMK A01 T00781040  RH  043%=      5-min Rain = 0
KTA1 210905Z 17011KT 08/M04 A2984 RMK A01 T00781040  RH  043%=      5-min Rain = 0
KTA1 210906Z 17011KT 08/M04 A2984 RMK A01 T00771041  RH  043%=      5-min Rain = 0
KTA1 210907Z 17012KT 08/M04 A2984 RMK A01 T00771040  RH  043%=      5-min Rain = 0
KTA1 210908Z 17010KT 08/M04 A2984 RMK A01 T00771040  RH  043%=      5-min Rain = 0
KTA1 210909Z 17012KT 08/M04 A2984 RMK A01 T00761040  RH  043%=      5-min Rain = 0
KTA1 210910Z 17012KT 08/M04 A2984 RMK A01 T00761040  RH  043%=      5-min Rain = 0
KTA1 210911Z 17011KT 08/M04 A2983 RMK A01 T00761040  RH  043%=      5-min Rain = 0
KTA1 210912Z 17011KT 08/M04 A2983 RMK A01 T00761040  RH  043%=      5-min Rain = 0
KTA1 210913Z 17009KT 08/M04 A2983 RMK A01 T00761040  RH  044%=      5-min Rain = 0
KTA1 210914Z 17011KT 08/M04 A2984 RMK A01 T00761040  RH  044%=      5-min Rain = 0
KTA1 210915Z 17010KT 08/M04 A2984 RMK A01 T00751040  RH  044%=      5-min Rain = 0
KTA1 210916Z 17011KT 08/M04 A2984 RMK A01 T00751040  RH  044%=      5-min Rain = 0
KTA1 210917Z 17011KT 08/M04 A2984 RMK A01 T00751040  RH  044%=      5-min Rain = 0
KTA1 210918Z 17011KT 08/M04 A2984 RMK A01 T00751040  RH  044%=      5-min Rain = 0
KTA1 210919Z 17010KT 08/M04 A2984 RMK A01 T00751040  RH  044%=      5-min Rain = 0
KTA1 210920Z 17010KT 08/M04 A2984 RMK A01 T00751040  RH  044%=      5-min Rain = 0
KTA1 210921Z 17010KT 07/M04 A2984 RMK A01 T00741040  RH  044%=      5-min Rain = 0
KTA1 210922Z 17009KT 07/M04 A2984 RMK A01 T00741040  RH  044%=      5-min Rain = 0
KTA1 210923Z 17009KT 07/M04 A2984 RMK A01 T00741040  RH  044%=      5-min Rain = 0
KTA1 210924Z 17009KT 07/M04 A2984 RMK A01 T00731040  RH  044%=      5-min Rain = 0
KTA1 210925Z 17009KT 07/M04 A2984 RMK A01 T00731040  RH  044%=      5-min Rain = 0
KTA1 210926Z 17009KT 07/M04 A2984 RMK A01 T00731040  RH  045%=      5-min Rain = 0
KTA1 210927Z 17008KT 07/M04 A2983 RMK A01 T00721040  RH  045%=      5-min Rain = 0
KTA1 210928Z 17008KT 07/M04 A2983 RMK A01 T00721040  RH  045%=      5-min Rain = 0
KTA1 210929Z 17008KT 07/M04 A2983 RMK A01 T00711040  RH  045%=      5-min Rain = 0
KTA1 210930Z 17009KT 07/M04 A2983 RMK A01 T00721040  RH  045%=      5-min Rain = 0
KTA1 210931Z 17009KT 07/M04 A2983 RMK A01 T00711040  RH  045%=      5-min Rain = 0
KTA1 210932Z 17008KT 07/M04 A2983 RMK A01 T00711040  RH  045%=      5-min Rain = 0
KTA1 210933Z 17008KT 07/M04 A2983 RMK A01 T00721040  RH  045%=      5-min Rain = 0
KTA1 210934Z 17009KT 07/M04 A2983 RMK A01 T00711040  RH  045%=      5-min Rain = 0
KTA1 210935Z 17009KT 07/M04 A2984 RMK A01 T00711040  RH  045%=      5-min Rain = 0
KTA1 210936Z 17008KT 07/M04 A2984 RMK A01 T00701040  RH  045%=      5-min Rain = 0
KTA1 210937Z 17008KT 07/M04 A2984 RMK A01 T00701040  RH  045%=      5-min Rain = 0
KTA1 210938Z 17008KT 07/M04 A2984 RMK A01 T00701040  RH  046%=      5-min Rain = 0
KTA1 210939Z 17007KT 07/M04 A2984 RMK A01 T00701040  RH  046%=      5-min Rain = 0
KTA1 210940Z 17008KT 07/M04 A2983 RMK A01 T00691040  RH  046%=      5-min Rain = 0
KTA1 210941Z 17008KT 07/M04 A2983 RMK A01 T00691040  RH  046%=      5-min Rain = 0
KTA1 210942Z 17008KT 07/M04 A2983 RMK A01 T00681040  RH  046%=      5-min Rain = 0
KTA1 210943Z 17008KT 07/M04 A2983 RMK A01 T00681040  RH  046%=      5-min Rain = 0
KTA1 210944Z 17007KT 07/M04 A2983 RMK A01 T00681040  RH  046%=      5-min Rain = 0
KTA1 210945Z 17007KT 07/M04 A2983 RMK A01 T00671040  RH  046%=      5-min Rain = 0
KTA1 210946Z 17007KT 07/M04 A2984 RMK A01 T00671040  RH  046%=      5-min Rain = 0
KTA1 210947Z 17007KT 07/M04 A2984 RMK A01 T00661040  RH  046%=      5-min Rain = 0
KTA1 210948Z 17007KT 07/M04 A2984 RMK A01 T00661040  RH  047%=      5-min Rain = 0
KTA1 210949Z 17007KT 07/M04 A2983 RMK A01 T00661040  RH  047%=      5-min Rain = 0
KTA1 210950Z 17007KT 07/M04 A2983 RMK A01 T00661040  RH  047%=      5-min Rain = 0
KTA1 210951Z 17007KT 07/M04 A2983 RMK A01 T00661040  RH  047%=      5-min Rain = 0
KTA1 210952Z 17007KT 07/M04 A2984 RMK A01 T00661040  RH  047%=      5-min Rain = 0
KTA1 210953Z 17007KT 07/M04 A2984 RMK A01 T00651040  RH  047%=      5-min Rain = 0
KTA1 210954Z 17007KT 07/M04 A2983 RMK A01 T00651040  RH  047%=      5-min Rain = 0
KTA1 210955Z 18007KT 06/M04 A2983 RMK A01 T00641040  RH  047%=      5-min Rain = 0
KTA1 210956Z 17007KT 06/M04 A2983 RMK A01 T00641040  RH  047%=      5-min Rain = 0
KTA1 210957Z 18007KT 06/M04 A2983 RMK A01 T00641040  RH  047%=      5-min Rain = 0
KTA1 210958Z 18007KT 06/M04 A2983 RMK A01 T00641040  RH  047%=      5-min Rain = 0
KTA1 210959Z 18007KT 06/M04 A2983 RMK A01 T00631040  RH  047%=      5-min Rain = 0
KTA1 211000Z 18007KT 06/M04 A2983 RMK A01 T00631040  RH  047%=      5-min Rain = 0
KTA1 211001Z 17006KT 06/M04 A2983 RMK A01 T00631040  RH  048%=      5-min Rain = 0
KTA1 211002Z 17006KT 06/M04 A2983 RMK A01 T00631040  RH  048%=      5-min Rain = 0
KTA1 211003Z 18006KT 06/M04 A2983 RMK A01 T00621041  RH  048%=      5-min Rain = 0
KTA1 211004Z 18006KT 06/M04 A2983 RMK A01 T00621040  RH  048%=      5-min Rain = 0
KTA1 211005Z 18005KT 06/M04 A2983 RMK A01 T00611040  RH  048%=      5-min Rain = 0
KTA1 211006Z 18006KT 06/M04 A2983 RMK A01 T00611041  RH  048%=      5-min Rain = 0
KTA1 211007Z 17006KT 06/M04 A2983 RMK A01 T00601041  RH  048%=      5-min Rain = 0
KTA1 211008Z 17006KT 06/M04 A2983 RMK A01 T00601040  RH  048%=      5-min Rain = 0
KTA1 211009Z 17006KT 06/M04 A2983 RMK A01 T00601040  RH  049%=      5-min Rain = 0
KTA1 211010Z 17006KT 06/M04 A2983 RMK A01 T00601040  RH  049%=      5-min Rain = 0
KTA1 211011Z 18006KT 06/M04 A2983 RMK A01 T00601040  RH  049%=      5-min Rain = 0
KTA1 211012Z 18006KT 06/M04 A2983 RMK A01 T00601040  RH  049%=      5-min Rain = 0
KTA1 211013Z 18007KT 06/M04 A2983 RMK A01 T00601040  RH  049%=      5-min Rain = 0
KTA1 211014Z 18006KT 06/M04 A2983 RMK A01 T00591040  RH  049%=      5-min Rain = 0
KTA1 211015Z 17006KT 06/M04 A2983 RMK A01 T00591040  RH  049%=      5-min Rain = 0
KTA1 211016Z 17006KT 06/M04 A2983 RMK A01 T00591040  RH  049%=      5-min Rain = 0
KTA1 211017Z 18006KT 06/M04 A2983 RMK A01 T00591040  RH  049%=      5-min Rain = 0
KTA1 211018Z 18006KT 06/M04 A2983 RMK A01 T00591040  RH  049%=      5-min Rain = 0
KTA1 211019Z 18006KT 06/M04 A2983 RMK A01 T00591040  RH  049%=      5-min Rain = 0
KTA1 211020Z 18006KT 06/M04 A2983 RMK A01 T00591040  RH  049%=      5-min Rain = 0
KTA1 211021Z 17006KT 06/M04 A2983 RMK A01 T00591040  RH  049%=      5-min Rain = 0
KTA1 211022Z 17006KT 06/M04 A2983 RMK A01 T00591040  RH  049%=      5-min Rain = 0
KTA1 211023Z 17006KT 06/M04 A2983 RMK A01 T00591040  RH  049%=      5-min Rain = 0
KTA1 211024Z 16007KT 06/M04 A2983 RMK A01 T00581040  RH  049%=      5-min Rain = 0
KTA1 211025Z 16007KT 06/M04 A2983 RMK A01 T00581040  RH  049%=      5-min Rain = 0
KTA1 211026Z 15008KT 06/M04 A2982 RMK A01 T00581040  RH  049%=      5-min Rain = 0
KTA1 211027Z 15007KT 06/M04 A2982 RMK A01 T00581040  RH  049%=      5-min Rain = 0
KTA1 211028Z 15007KT 06/M04 A2982 RMK A01 T00581040  RH  049%=      5-min Rain = 0
KTA1 211029Z 15007KT 06/M04 A2982 RMK A01 T00581040  RH  049%=      5-min Rain = 0
KTA1 211030Z 15008KT 06/M04 A2982 RMK A01 T00581039  RH  050%=      5-min Rain = 0
KTA1 211031Z 16007KT 06/M04 A2982 RMK A01 T00581040  RH  050%=      5-min Rain = 0
KTA1 211032Z 15007KT 06/M04 A2982 RMK A01 T00581039  RH  049%=      5-min Rain = 0
KTA1 211033Z 15008KT 06/M04 A2982 RMK A01 T00591039  RH  049%=      5-min Rain = 0
KTA1 211034Z 15008KT 06/M04 A2982 RMK A01 T00591039  RH  049%=      5-min Rain = 0
KTA1 211035Z 15008KT 06/M04 A2982 RMK A01 T00591039  RH  049%=      5-min Rain = 0
KTA1 211036Z 16008KT 06/M04 A2982 RMK A01 T00591039  RH  049%=      5-min Rain = 0
KTA1 211037Z 16007KT 06/M04 A2982 RMK A01 T00591039  RH  049%=      5-min Rain = 0
KTA1 211038Z 15007KT 06/M04 A2982 RMK A01 T00591039  RH  049%=      5-min Rain = 0
KTA1 211039Z 15008KT 06/M04 A2981 RMK A01 T00591039  RH  049%=      5-min Rain = 0
KTA1 211040Z 14008KT 06/M04 A2981 RMK A01 T00591039  RH  049%=      5-min Rain = 0
KTA1 211041Z 14008KT 06/M04 A2981 RMK A01 T00581040  RH  049%=      5-min Rain = 0
KTA1 211042Z 14008KT 06/M04 A2981 RMK A01 T00571040  RH  050%=      5-min Rain = 0
KTA1 211043Z 14008KT 06/M04 A2981 RMK A01 T00571040  RH  050%=      5-min Rain = 0
KTA1 211044Z 14008KT 06/M04 A2981 RMK A01 T00561040  RH  050%=      5-min Rain = 0
KTA1 211045Z 14008KT 06/M04 A2981 RMK A01 T00551040  RH  050%=      5-min Rain = 0
KTA1 211046Z 14008KT 06/M04 A2981 RMK A01 T00551039  RH  051%=      5-min Rain = 0
KTA1 211047Z 14008KT 05/M04 A2981 RMK A01 T00541039  RH  051%=      5-min Rain = 0
KTA1 211048Z 14008KT 05/M04 A2981 RMK A01 T00541039  RH  051%=      5-min Rain = 0
KTA1 211049Z 14008KT 05/M04 A2981 RMK A01 T00541039  RH  051%=      5-min Rain = 0
KTA1 211050Z 15008KT 05/M04 A2981 RMK A01 T00541038  RH  051%=      5-min Rain = 0
KTA1 211051Z 15008KT 05/M04 A2981 RMK A01 T00531039  RH  052%=      5-min Rain = 0
KTA1 211052Z 14008KT 05/M04 A298 RMK A01 T00531038  RH  052%=      5-min Rain = 0
KTA1 211053Z 14008KT 05/M04 A2981 RMK A01 T00531039  RH  052%=      5-min Rain = 0
KTA1 211054Z 15008KT 05/M04 A2981 RMK A01 T00531039  RH  052%=      5-min Rain = 0
KTA1 211055Z 15008KT 05/M04 A2981 RMK A01 T00531039  RH  052%=      5-min Rain = 0
KTA1 211056Z 15008KT 05/M04 A2981 RMK A01 T00531039  RH  052%=      5-min Rain = 0
KTA1 211057Z 15008KT 05/M04 A2981 RMK A01 T00531038  RH  052%=      5-min Rain = 0
KTA1 211058Z 15008KT 05/M04 A2981 RMK A01 T00541039  RH  051%=      5-min Rain = 0
KTA1 211059Z 15008KT 06/M04 A2981 RMK A01 T00551038  RH  051%=      5-min Rain = 0
KTA1 211100Z 15008KT 06/M04 A2981 RMK A01 T00561039  RH  051%=      5-min Rain = 0
KTA1 211101Z 15008KT 06/M04 A2981 RMK A01 T00561039  RH  051%=      5-min Rain = 0
KTA1 211102Z 15008KT 06/M04 A2981 RMK A01 T00561038  RH  051%=      5-min Rain = 0
KTA1 211103Z 15009KT 06/M04 A2981 RMK A01 T00571038  RH  050%=      5-min Rain = 0
KTA1 211104Z 15008KT 06/M04 A2981 RMK A01 T00571039  RH  050%=      5-min Rain = 0
KTA1 211105Z 14009KT 06/M04 A298 RMK A01 T00571038  RH  050%=      5-min Rain = 0
KTA1 211106Z 14009KT 06/M04 A298 RMK A01 T00571039  RH  050%=      5-min Rain = 0
KTA1 211107Z 14009KT 06/M04 A298 RMK A01 T00571039  RH  050%=      5-min Rain = 0
KTA1 211108Z 14009KT 06/M04 A298 RMK A01 T00571039  RH  050%=      5-min Rain = 0
KTA1 211109Z 15009KT 06/M04 A2981 RMK A01 T00571039  RH  050%=      5-min Rain = 0
KTA1 211110Z 15008KT 06/M04 A2981 RMK A01 T00571038  RH  050%=      5-min Rain = 0
KTA1 211111Z 14008KT 06/M04 A298 RMK A01 T00581038  RH  050%=      5-min Rain = 0
KTA1 211112Z 14008KT 06/M04 A298 RMK A01 T00581038  RH  050%=      5-min Rain = 0
KTA1 211113Z 15009KT 06/M04 A298 RMK A01 T00581038  RH  050%=      5-min Rain = 0
KTA1 211114Z 15008KT 06/M04 A298 RMK A01 T00591038  RH  050%=      5-min Rain = 0
KTA1 211115Z 15008KT 06/M04 A2981 RMK A01 T00591038  RH  050%=      5-min Rain = 0
KTA1 211116Z 16008KT 06/M04 A2981 RMK A01 T00591038  RH  050%=      5-min Rain = 0
KTA1 211117Z 16007KT 06/M04 A2981 RMK A01 T00601037  RH  050%=      5-min Rain = 0
KTA1 211118Z 16008KT 06/M04 A2981 RMK A01 T00611037  RH  049%=      5-min Rain = 0
KTA1 211119Z 16009KT 06/M04 A2981 RMK A01 T00611038  RH  049%=      5-min Rain = 0
KTA1 211120Z 15008KT 06/M04 A2981 RMK A01 T00611038  RH  049%=      5-min Rain = 0
KTA1 211121Z 15009KT 06/M04 A2981 RMK A01 T00611038  RH  049%=      5-min Rain = 0
KTA1 211122Z 15010KT 06/M04 A2981 RMK A01 T00611038  RH  049%=      5-min Rain = 0
KTA1 211123Z 15009KT 06/M04 A2981 RMK A01 T00611037  RH  049%=      5-min Rain = 0
KTA1 211124Z 15009KT 06/M04 A2981 RMK A01 T00611038  RH  049%=      5-min Rain = 0
KTA1 211125Z 15009KT 06/M04 A2981 RMK A01 T00611037  RH  049%=      5-min Rain = 0
KTA1 211126Z 15009KT 06/M04 A2981 RMK A01 T00611037  RH  049%=      5-min Rain = 0
KTA1 211127Z 15009KT 06/M04 A2981 RMK A01 T00611037  RH  049%=      5-min Rain = 0
KTA1 211128Z 15008KT 06/M04 A2981 RMK A01 T00611038  RH  049%=      5-min Rain = 0
KTA1 211129Z 15008KT 06/M04 A298 RMK A01 T00601038  RH  049%=      5-min Rain = 0
KTA1 211130Z 15008KT 06/M04 A2981 RMK A01 T00601038  RH  049%=      5-min Rain = 0
KTA1 211131Z 15008KT 06/M04 A2981 RMK A01 T00601038  RH  049%=      5-min Rain = 0
KTA1 211132Z 15007KT 06/M04 A2981 RMK A01 T00601038  RH  049%=      5-min Rain = 0
KTA1 211133Z 15008KT 06/M04 A298 RMK A01 T00601038  RH  050%=      5-min Rain = 0
KTA1 211134Z 14008KT 06/M04 A298 RMK A01 T00601037  RH  050%=      5-min Rain = 0
KTA1 211135Z 15008KT 06/M04 A298 RMK A01 T00601037  RH  050%=      5-min Rain = 0
KTA1 211136Z 15008KT 06/M04 A298 RMK A01 T00601038  RH  050%=      5-min Rain = 0
KTA1 211137Z 15008KT 06/M04 A298 RMK A01 T00601037  RH  050%=      5-min Rain = 0
KTA1 211138Z 15008KT 06/M04 A298 RMK A01 T00601037  RH  050%=      5-min Rain = 0
KTA1 211139Z 15007KT 06/M04 A298 RMK A01 T00601037  RH  050%=      5-min Rain = 0
KTA1 211140Z 15008KT 06/M04 A298 RMK A01 T00601037  RH  050%=      5-min Rain = 0
KTA1 211141Z 15008KT 06/M04 A2981 RMK A01 T00601037  RH  050%=      5-min Rain = 0
KTA1 211142Z 15006KT 06/M04 A2981 RMK A01 T00611037  RH  050%=      5-min Rain = 0
KTA1 211143Z 15007KT 06/M04 A2981 RMK A01 T00601037  RH  050%=      5-min Rain = 0
KTA1 211144Z 14008KT 06/M04 A298 RMK A01 T00601037  RH  050%=      5-min Rain = 0
KTA1 211145Z 14009KT 06/M04 A298 RMK A01 T00611037  RH  050%=      5-min Rain = 0
KTA1 211146Z 15008KT 06/M04 A2981 RMK A01 T00611037  RH  049%=      5-min Rain = 0
KTA1 211147Z 15008KT 06/M04 A2981 RMK A01 T00611037  RH  049%=      5-min Rain = 0
KTA1 211148Z 14008KT 06/M04 A2981 RMK A01 T00611037  RH  050%=      5-min Rain = 0
KTA1 211149Z 15009KT 06/M04 A2981 RMK A01 T00611037  RH  050%=      5-min Rain = 0
KTA1 211150Z 15008KT 06/M04 A2981 RMK A01 T00621037  RH  049%=      5-min Rain = 0
KTA1 211151Z 15009KT 06/M04 A2981 RMK A01 T00621036  RH  049%=      5-min Rain = 0
KTA1 211152Z 15009KT 06/M04 A2981 RMK A01 T00621037  RH  049%=      5-min Rain = 0
KTA1 211153Z 15008KT 06/M04 A2981 RMK A01 T00621036  RH  049%=      5-min Rain = 0
KTA1 211154Z 15009KT 06/M04 A2981 RMK A01 T00621036  RH  049%=      5-min Rain = 0
KTA1 211155Z 15009KT 06/M04 A2981 RMK A01 T00621037  RH  049%=      5-min Rain = 0
KTA1 211156Z 15009KT 06/M04 A2981 RMK A01 T00631036  RH  049%=      5-min Rain = 0
KTA1 211157Z 15009KT 06/M04 A2982 RMK A01 T00631036  RH  049%=      5-min Rain = 0
KTA1 211158Z 15010KT 06/M04 A2981 RMK A01 T00631036  RH  049%=      5-min Rain = 0
KTA1 211159Z 15009KT 06/M04 A2981 RMK A01 T00631036  RH  049%=      5-min Rain = 0
KTA1 211200Z 15008KT 06/M04 A2981 RMK A01 T00631036  RH  049%=      5-min Rain = 0
KTA1 211201Z 15009KT 06/M04 A2981 RMK A01 T00641036  RH  049%=      5-min Rain = 0
KTA1 211202Z 15009KT 06/M04 A2981 RMK A01 T00631036  RH  049%=      5-min Rain = 0
KTA1 211203Z 15009KT 06/M04 A2981 RMK A01 T00631036  RH  049%=      5-min Rain = 0
KTA1 211204Z 15010KT 06/M04 A2981 RMK A01 T00631036  RH  049%=      5-min Rain = 0
KTA1 211205Z 15009KT 06/M04 A2981 RMK A01 T00621036  RH  049%=      5-min Rain = 0
KTA1 211206Z 15010KT 06/M04 A2981 RMK A01 T00621036  RH  049%=      5-min Rain = 0
KTA1 211207Z 15011KT 06/M04 A2981 RMK A01 T00621036  RH  050%=      5-min Rain = 0
KTA1 211208Z 15010KT 06/M04 A2981 RMK A01 T00621036  RH  049%=      5-min Rain = 0
KTA1 211209Z 14010KT 06/M04 A2981 RMK A01 T00621036  RH  049%=      5-min Rain = 0
KTA1 211210Z 14010KT 06/M04 A2981 RMK A01 T00621036  RH  049%=      5-min Rain = 0
KTA1 211211Z 14010KT 06/M04 A2981 RMK A01 T00621036  RH  049%=      5-min Rain = 0
KTA1 211212Z 14011KT 06/M04 A2981 RMK A01 T00621036  RH  050%=      5-min Rain = 0
KTA1 211213Z 14011KT 06/M04 A2981 RMK A01 T00621036  RH  050%=      5-min Rain = 0
KTA1 211214Z 15010KT 06/M04 A2982 RMK A01 T00621035  RH  050%=      5-min Rain = 0
KTA1 211215Z 15011KT 06/M04 A2982 RMK A01 T00621035  RH  050%=      5-min Rain = 0
KTA1 211216Z 15010KT 06/M04 A2982 RMK A01 T00621035  RH  050%=      5-min Rain = 0
KTA1 211217Z 15009KT 06/M04 A2982 RMK A01 T00621035  RH  050%=      5-min Rain = 0
KTA1 211218Z 14010KT 06/M04 A2981 RMK A01 T00621035  RH  050%=      5-min Rain = 0
KTA1 211219Z 14011KT 06/M04 A2981 RMK A01 T00631035  RH  050%=      5-min Rain = 0
KTA1 211220Z 14011KT 06/M04 A2981 RMK A01 T00631035  RH  049%=      5-min Rain = 0
KTA1 211221Z 14011KT 06/M04 A298 RMK A01 T00631035  RH  049%=      5-min Rain = 0
KTA1 211222Z 13013KT 06/M04 A298 RMK A01 T00641035  RH  049%=      5-min Rain = 0
KTA1 211223Z 14012KT 06/M04 A298 RMK A01 T00641035  RH  049%=      5-min Rain = 0
KTA1 211224Z 14012KT 06/M04 A298 RMK A01 T00641035  RH  049%=      5-min Rain = 0
KTA1 211225Z 14012KT 06/M03 A298 RMK A01 T00641034  RH  049%=      5-min Rain = 0
KTA1 211226Z 14012KT 06/M03 A298 RMK A01 T00641034  RH  050%=      5-min Rain = 0
KTA1 211227Z 13013KT 06/M03 A298 RMK A01 T00641034  RH  050%=      5-min Rain = 0
KTA1 211228Z 13014KT 06/M03 A2979 RMK A01 T00641034  RH  050%=      5-min Rain = 0
KTA1 211229Z 13014KT 06/M03 A2979 RMK A01 T00641034  RH  049%=      5-min Rain = 0
KTA1 211230Z 13014KT 07/M03 A2979 RMK A01 T00651034  RH  049%=      5-min Rain = 0
KTA1 211231Z 13012KT 07/M03 A2979 RMK A01 T00651034  RH  049%=      5-min Rain = 0
KTA1 211232Z 14013KT 07/M03 A298 RMK A01 T00651034  RH  049%=      5-min Rain = 0
KTA1 211233Z 14013KT 07/M03 A298 RMK A01 T00661034  RH  049%=      5-min Rain = 0
KTA1 211234Z 14013KT 07/M03 A298 RMK A01 T00671034  RH  049%=      5-min Rain = 0
KTA1 211235Z 14011KT 07/M03 A298 RMK A01 T00671033  RH  049%=      5-min Rain = 0
KTA1 211236Z 14011KT 07/M03 A298 RMK A01 T00671034  RH  049%=      5-min Rain = 0
KTA1 211237Z 15012KT 07/M03 A2981 RMK A01 T00681033  RH  049%=      5-min Rain = 0
KTA1 211238Z 15010KT 07/M03 A2981 RMK A01 T00681032  RH  049%=      5-min Rain = 0
KTA1 211239Z 15011KT 07/M03 A2981 RMK A01 T00691032  RH  048%=      5-min Rain = 0
KTA1 211240Z 16011KT 07/M03 A2981 RMK A01 T00691033  RH  048%=      5-min Rain = 0
KTA1 211241Z 15010KT 07/M03 A2981 RMK A01 T00691033  RH  048%=      5-min Rain = 0
KTA1 211242Z 15012KT 07/M03 A2981 RMK A01 T00691033  RH  048%=      5-min Rain = 0
KTA1 211243Z 15010KT 07/M03 A298 RMK A01 T00701033  RH  048%=      5-min Rain = 0
KTA1 211244Z 14012KT 07/M03 A298 RMK A01 T00701033  RH  048%=      5-min Rain = 0
KTA1 211245Z 15011KT 07/M03 A2981 RMK A01 T00701033  RH  048%=      5-min Rain = 0
KTA1 211246Z 16011KT 07/M03 A2981 RMK A01 T00701032  RH  048%=      5-min Rain = 0
KTA1 211247Z 16010KT 07/M03 A2982 RMK A01 T00701033  RH  048%=      5-min Rain = 0
KTA1 211248Z 17010KT 07/M03 A2982 RMK A01 T00701032  RH  048%=      5-min Rain = 0
KTA1 211249Z 17011KT 07/M03 A2983 RMK A01 T00701033  RH  048%=      5-min Rain = 0
KTA1 211250Z 17010KT 07/M03 A2983 RMK A01 T00701033  RH  048%=      5-min Rain = 0
KTA1 211251Z 16012KT 07/M03 A2982 RMK A01 T00701033  RH  048%=      5-min Rain = 0
KTA1 211252Z 15011KT 07/M03 A2982 RMK A01 T00701032  RH  048%=      5-min Rain = 0
KTA1 211253Z 16013KT 07/M03 A2982 RMK A01 T00701032  RH  048%=      5-min Rain = 0
KTA1 211254Z 16012KT 07/M03 A2982 RMK A01 T00701032  RH  048%=      5-min Rain = 0
KTA1 211255Z 15012KT 07/M03 A2982 RMK A01 T00691032  RH  048%=      5-min Rain = 0
KTA1 211256Z 15013KT 07/M03 A2981 RMK A01 T00701031  RH  048%=      5-min Rain = 0
KTA1 211257Z 15012KT 07/M03 A2981 RMK A01 T00701032  RH  048%=      5-min Rain = 0
KTA1 211258Z 15013KT 07/M03 A2981 RMK A01 T00701032  RH  048%=      5-min Rain = 0
KTA1 211259Z 15013KT 07/M03 A2981 RMK A01 T00701032  RH  048%=      5-min Rain = 0
KTA1 211300Z 15014KT 07/M03 A2981 RMK A01 T00711031  RH  048%=      5-min Rain = 0
KTA1 211301Z 16014KT 07/M03 A2982 RMK A01 T00711031  RH  048%=      5-min Rain = 0
KTA1 211302Z 15014KT 07/M03 A2981 RMK A01 T00711031  RH  048%=      5-min Rain = 0
KTA1 211303Z 15015KT 07/M03 A2981 RMK A01 T00711031  RH  048%=      5-min Rain = 0
KTA1 211304Z 14014KT 07/M03 A298 RMK A01 T00711031  RH  048%=      5-min Rain = 0
KTA1 211305Z 15014KT 07/M03 A298 RMK A01 T00701031  RH  049%=      5-min Rain = 0
KTA1 211306Z 15014KT 07/M03 A298 RMK A01 T00701031  RH  049%=      5-min Rain = 0
KTA1 211307Z 15014KT 07/M03 A298 RMK A01 T00701030  RH  049%=      5-min Rain = 0
KTA1 211308Z 15014KT 07/M03 A298 RMK A01 T00701031  RH  049%=      5-min Rain = 0
KTA1 211309Z 15014KT 07/M03 A2981 RMK A01 T00701030  RH  049%=      5-min Rain = 0
KTA1 211310Z 15014KT 07/M03 A2981 RMK A01 T00701030  RH  049%=      5-min Rain = 0
KTA1 211311Z 15013KT 07/M03 A2981 RMK A01 T00701030  RH  049%=      5-min Rain = 0
KTA1 211312Z 15014KT 07/M03 A2981 RMK A01 T00701030  RH  049%=      5-min Rain = 0
KTA1 211313Z 15014KT 07/M03 A2981 RMK A01 T00701029  RH  049%=      5-min Rain = 0
KTA1 211314Z 15014KT 07/M03 A2981 RMK A01 T00701030  RH  049%=      5-min Rain = 0
KTA1 211315Z 15013KT 07/M03 A2981 RMK A01 T00701030  RH  049%=      5-min Rain = 0
KTA1 211316Z 15014KT 07/M03 A2981 RMK A01 T00701030  RH  049%=      5-min Rain = 0
KTA1 211317Z 15013KT 07/M03 A2981 RMK A01 T00701030  RH  049%=      5-min Rain = 0
KTA1 211318Z 15014KT 07/M03 A2981 RMK A01 T00701029  RH  049%=      5-min Rain = 0
KTA1 211319Z 15013KT 07/M03 A2981 RMK A01 T00701029  RH  049%=      5-min Rain = 0
KTA1 211320Z 15013KT 07/M03 A2981 RMK A01 T00701029  RH  049%=      5-min Rain = 0
KTA1 211321Z 14015KT 07/M03 A298 RMK A01 T00701029  RH  049%=      5-min Rain = 0
KTA1 211322Z 14015KT 07/M03 A298 RMK A01 T00701029  RH  049%=      5-min Rain = 0
KTA1 211323Z 14016KT 07/M03 A298 RMK A01 T00701029  RH  049%=      5-min Rain = 0
KTA1 211324Z 15016KT 07/M03 A298 RMK A01 T00701029  RH  049%=      5-min Rain = 0
KTA1 211325Z 14016KT 07/M03 A298 RMK A01 T00701029  RH  049%=      5-min Rain = 0
KTA1 211326Z 14015KT 07/M03 A298 RMK A01 T00701028  RH  049%=      5-min Rain = 0
KTA1 211327Z 14014KT 07/M03 A298 RMK A01 T00701028  RH  050%=      5-min Rain = 0
KTA1 211328Z 15013KT 07/M03 A298 RMK A01 T00701028  RH  050%=      5-min Rain = 0
KTA1 211329Z 15012G17KT 07/M03 A298 RMK A01 T00701028  RH  050%=      5-min Rain = 0
KTA1 211330Z 15014KT 07/M03 A298 RMK A01 T00691028  RH  050%=      5-min Rain = 0
KTA1 211331Z 14015KT 07/M03 A298 RMK A01 T00701028  RH  050%=      5-min Rain = 0
KTA1 211332Z 15014KT 07/M03 A298 RMK A01 T00701028  RH  050%=      5-min Rain = 0
KTA1 211333Z 15011G16KT 07/M03 A2981 RMK A01 T00701028  RH  050%=      5-min Rain = 0
KTA1 211334Z 16012KT 07/M03 A2981 RMK A01 T00711028  RH  050%=      5-min Rain = 0
KTA1 211335Z 15013KT 07/M03 A2981 RMK A01 T00711027  RH  050%=      5-min Rain = 0
KTA1 211336Z 15015KT 07/M03 A298 RMK A01 T00711027  RH  050%=      5-min Rain = 0
KTA1 211337Z 15016KT 07/M03 A298 RMK A01 T00711027  RH  050%=      5-min Rain = 0
KTA1 211338Z 15014KT 07/M03 A298 RMK A01 T00711027  RH  050%=      5-min Rain = 0
KTA1 211339Z 15012G17KT 07/M03 A298 RMK A01 T00711027  RH  050%=      5-min Rain = 0
KTA1 211340Z 14014KT 07/M03 A298 RMK A01 T00711027  RH  050%=      5-min Rain = 0
KTA1 211341Z 14013KT 07/M03 A298 RMK A01 T00711027  RH  050%=      5-min Rain = 0
KTA1 211342Z 14014KT 07/M03 A298 RMK A01 T00701027  RH  050%=      5-min Rain = 0
KTA1 211343Z 14014KT 07/M03 A298 RMK A01 T00711027  RH  050%=      5-min Rain = 0
KTA1 211344Z 14015KT 07/M03 A298 RMK A01 T00711026  RH  050%=      5-min Rain = 0
KTA1 211345Z 14013KT 07/M03 A298 RMK A01 T00701026  RH  050%=      5-min Rain = 0
KTA1 211346Z 15014KT 07/M03 A298 RMK A01 T00711026  RH  050%=      5-min Rain = 0
KTA1 211347Z 16012KT 07/M03 A2981 RMK A01 T00711026  RH  050%=      5-min Rain = 0
KTA1 211348Z 16013KT 07/M03 A2982 RMK A01 T00711025  RH  050%=      5-min Rain = 0
KTA1 211349Z 17011KT 07/M03 A2982 RMK A01 T00721026  RH  050%=      5-min Rain = 0
KTA1 211350Z 19010KT 07/M03 A2983 RMK A01 T00721026  RH  050%=      5-min Rain = 0
KTA1 211351Z 20009KT 07/M03 A2983 RMK A01 T00721026  RH  050%=      5-min Rain = 0
KTA1 211352Z 20009KT 07/M03 A2984 RMK A01 T00721026  RH  050%=      5-min Rain = 0
KTA1 211353Z 20009KT 07/M03 A2984 RMK A01 T00711026  RH  050%=      5-min Rain = 0
KTA1 211354Z 20008KT 07/M03 A2984 RMK A01 T00711026  RH  050%=      5-min Rain = 0
KTA1 211355Z 19008KT 07/M03 A2984 RMK A01 T00711026  RH  050%=      5-min Rain = 0
KTA1 211356Z 19008KT 07/M03 A2984 RMK A01 T00721025  RH  050%=      5-min Rain = 0
KTA1 211357Z 19010KT 07/M03 A2984 RMK A01 T00711026  RH  050%=      5-min Rain = 0
KTA1 211358Z 18008KT 07/M03 A2984 RMK A01 T00711026  RH  050%=      5-min Rain = 0
KTA1 211359Z 17011KT 07/M03 A2983 RMK A01 T00721026  RH  050%=      5-min Rain = 0
KTA1 211400Z 16010KT 07/M03 A2983 RMK A01 T00721026  RH  050%=      5-min Rain = 0
KTA1 211401Z 17012KT 07/M03 A2983 RMK A01 T00721025  RH  050%=      5-min Rain = 0
KTA1 211402Z 17011KT 07/M03 A2983 RMK A01 T00731025  RH  050%=      5-min Rain = 0
KTA1 211403Z 17010KT 07/M03 A2982 RMK A01 T00731025  RH  050%=      5-min Rain = 0
KTA1 211404Z 17010KT 07/M03 A2983 RMK A01 T00731025  RH  050%=      5-min Rain = 0
KTA1 211405Z 17009KT 07/M03 A2983 RMK A01 T00731025  RH  050%=      5-min Rain = 0
KTA1 211406Z 17008KT 07/M03 A2983 RMK A01 T00731025  RH  050%=      5-min Rain = 0
KTA1 211407Z 16010KT 07/M03 A2983 RMK A01 T00731025  RH  050%=      5-min Rain = 0
KTA1 211408Z 16010KT 07/M03 A2982 RMK A01 T00731025  RH  050%=      5-min Rain = 0
KTA1 211409Z 16011KT 07/M03 A2982 RMK A01 T00731025  RH  050%=      5-min Rain = 0
KTA1 211410Z 16011KT 07/M02 A2982 RMK A01 T00731024  RH  050%=      5-min Rain = 0
KTA1 211411Z 16010KT 07/M02 A2982 RMK A01 T00731024  RH  050%=      5-min Rain = 0
KTA1 211412Z 15011KT 07/M02 A2982 RMK A01 T00731024  RH  050%=      5-min Rain = 0
KTA1 211413Z 15011KT 07/M02 A2982 RMK A01 T00731024  RH  050%=      5-min Rain = 0
KTA1 211414Z 15012KT 07/M02 A2982 RMK A01 T00731024  RH  050%=      5-min Rain = 0
KTA1 211415Z 14011KT 07/M02 A2982 RMK A01 T00731024  RH  050%=      5-min Rain = 0
KTA1 211416Z 15013KT 07/M02 A2982 RMK A01 T00731024  RH  050%=      5-min Rain = 0
KTA1 211417Z 15011KT 07/M02 A2982 RMK A01 T00731024  RH  050%=      5-min Rain = 0
KTA1 211418Z 15011KT 07/M02 A2982 RMK A01 T00731023  RH  050%=      5-min Rain = 0
KTA1 211419Z 16012KT 07/M02 A2983 RMK A01 T00741023  RH  050%=      5-min Rain = 0
KTA1 211420Z 15010KT 07/M02 A2983 RMK A01 T00741023  RH  050%=      5-min Rain = 0
KTA1 211421Z 16009KT 07/M02 A2983 RMK A01 T00741023  RH  050%=      5-min Rain = 0
KTA1 211422Z 16010KT 07/M02 A2983 RMK A01 T00741023  RH  050%=      5-min Rain = 0
KTA1 211423Z 15010KT 07/M02 A2983 RMK A01 T00741022  RH  050%=      5-min Rain = 0
KTA1 211424Z 15012KT 07/M02 A2983 RMK A01 T00741022  RH  050%=      5-min Rain = 0
KTA1 211425Z 15009KT 07/M02 A2983 RMK A01 T00741022  RH  050%=      5-min Rain = 0
KTA1 211426Z 15009KT 07/M02 A2983 RMK A01 T00741022  RH  050%=      5-min Rain = 0
KTA1 211427Z 15012KT 08/M02 A2983 RMK A01 T00751021  RH  050%=      5-min Rain = 0
KTA1 211428Z 15011KT 08/M02 A2983 RMK A01 T00751022  RH  050%=      5-min Rain = 0
KTA1 211429Z 14012KT 08/M02 A2982 RMK A01 T00751021  RH  050%=      5-min Rain = 0
KTA1 211430Z 14011KT 08/M02 A2982 RMK A01 T00751021  RH  050%=      5-min Rain = 0
KTA1 211431Z 15012KT 08/M02 A2982 RMK A01 T00751021  RH  051%=      5-min Rain = 0
KTA1 211432Z 15010KT 08/M02 A2983 RMK A01 T00751021  RH  050%=      5-min Rain = 0
KTA1 211433Z 15010KT 08/M02 A2983 RMK A01 T00751021  RH  051%=      5-min Rain = 0
KTA1 211434Z 15010KT 08/M02 A2983 RMK A01 T00761020  RH  051%=      5-min Rain = 0
KTA1 211435Z 15009KT 08/M02 A2983 RMK A01 T00761020  RH  051%=      5-min Rain = 0
KTA1 211436Z 15012KT 08/M02 A2983 RMK A01 T00761020  RH  051%=      5-min Rain = 0
KTA1 211437Z 15010KT 08/M02 A2983 RMK A01 T00761021  RH  051%=      5-min Rain = 0
KTA1 211438Z 14011KT 08/M02 A2983 RMK A01 T00761021  RH  051%=      5-min Rain = 0
KTA1 211439Z 14011KT 08/M02 A2983 RMK A01 T00761020  RH  051%=      5-min Rain = 0
KTA1 211440Z 14012KT 08/M02 A2983 RMK A01 T00761020  RH  051%=      5-min Rain = 0
KTA1 211441Z 14011KT 08/M02 A2983 RMK A01 T00761020  RH  051%=      5-min Rain = 0
KTA1 211442Z 14010KT 08/M02 A2983 RMK A01 T00761020  RH  051%=      5-min Rain = 0
KTA1 211443Z 15010KT 08/M02 A2983 RMK A01 T00771019  RH  051%=      5-min Rain = 0
KTA1 211444Z 15009KT 08/M02 A2984 RMK A01 T00771019  RH  051%=      5-min Rain = 0
KTA1 211445Z 15009KT 08/M02 A2984 RMK A01 T00771019  RH  051%=      5-min Rain = 0
KTA1 211446Z 15008KT 08/M02 A2984 RMK A01 T00771019  RH  051%=      5-min Rain = 0
KTA1 211447Z 15007KT 08/M02 A2984 RMK A01 T00781019  RH  051%=      5-min Rain = 0
KTA1 211448Z 15007KT 08/M02 A2984 RMK A01 T00781019  RH  051%=      5-min Rain = 0
KTA1 211449Z 15010KT 08/M02 A2984 RMK A01 T00781018  RH  051%=      5-min Rain = 0
KTA1 211450Z 16009KT 08/M02 A2984 RMK A01 T00781018  RH  050%=      5-min Rain = 0
KTA1 211451Z 15007KT 08/M02 A2985 RMK A01 T00781018  RH  050%=      5-min Rain = 0
KTA1 211452Z 17007KT 08/M02 A2985 RMK A01 T00791018  RH  050%=      5-min Rain = 0
KTA1 211453Z 17008KT 08/M02 A2985 RMK A01 T00791018  RH  050%=      5-min Rain = 0
KTA1 211454Z 17009KT 08/M02 A2986 RMK A01 T00791017  RH  050%=      5-min Rain = 0
KTA1 211455Z 17006KT 08/M02 A2986 RMK A01 T00791017  RH  050%=      5-min Rain = 0
KTA1 211456Z 17007KT 08/M02 A2986 RMK A01 T00801017  RH  050%=      5-min Rain = 0
KTA1 211457Z 16009KT 08/M02 A2986 RMK A01 T00801017  RH  050%=      5-min Rain = 0
KTA1 211458Z 16007KT 08/M02 A2986 RMK A01 T00801017  RH  050%=      5-min Rain = 0
KTA1 211459Z 15008KT 08/M02 A2985 RMK A01 T00801017  RH  050%=      5-min Rain = 0
KTA1 211500Z 15009KT 08/M02 A2985 RMK A01 T00801017  RH  050%=      5-min Rain = 0
KTA1 211501Z 15007KT 08/M02 A2985 RMK A01 T00811016  RH  050%=      5-min Rain = 0
KTA1 211502Z 16006KT 08/M02 A2985 RMK A01 T00811016  RH  050%=      5-min Rain = 0
KTA1 211503Z 17004KT 08/M02 A2985 RMK A01 T00811016  RH  050%=      5-min Rain = 0
KTA1 211504Z 16005KT 08/M02 A2985 RMK A01 T00811016  RH  050%=      5-min Rain = 0
KTA1 211505Z 16005KT 08/M02 A2985 RMK A01 T00821016  RH  050%=      5-min Rain = 0
KTA1 211506Z 16005KT 08/M02 A2986 RMK A01 T00821016  RH  050%=      5-min Rain = 0
KTA1 211507Z 15005KT 08/M02 A2985 RMK A01 T00821015  RH  050%=      5-min Rain = 0
KTA1 211508Z 14007KT 08/M02 A2985 RMK A01 T00821016  RH  050%=      5-min Rain = 0
KTA1 211509Z 16006KT 08/M02 A2985 RMK A01 T00831015  RH  050%=      5-min Rain = 0
KTA1 211510Z 15005KT 08/M02 A2985 RMK A01 T00831016  RH  050%=      5-min Rain = 0
KTA1 211511Z 15005KT 08/M02 A2985 RMK A01 T00831016  RH  050%=      5-min Rain = 0
KTA1 211512Z 16005KT 08/M02 A2985 RMK A01 T00831015  RH  050%=      5-min Rain = 0
KTA1 211513Z 15007KT 08/M02 A2985 RMK A01 T00831015  RH  050%=      5-min Rain = 0
KTA1 211514Z 14006KT 08/M02 A2985 RMK A01 T00841015  RH  050%=      5-min Rain = 0
KTA1 211515Z 16006KT 08/M02 A2985 RMK A01 T00841015  RH  050%=      5-min Rain = 0
KTA1 211516Z 15008KT 09/M01 A2985 RMK A01 T00851014  RH  050%=      5-min Rain = 0
KTA1 211517Z 16009KT 09/M02 A2985 RMK A01 T00851015  RH  049%=      5-min Rain = 0
KTA1 211518Z 16008KT 09/M01 A2985 RMK A01 T00851014  RH  049%=      5-min Rain = 0
KTA1 211519Z 15010KT 09/M01 A2985 RMK A01 T00861014  RH  050%=      5-min Rain = 0
KTA1 211520Z 15010KT 09/M01 A2985 RMK A01 T00861014  RH  049%=      5-min Rain = 0
KTA1 211521Z 15010KT 09/M01 A2985 RMK A01 T00871014  RH  049%=      5-min Rain = 0
KTA1 211522Z 15009KT 09/M01 A2985 RMK A01 T00871014  RH  049%=      5-min Rain = 0
KTA1 211523Z 15009KT 09/M01 A2985 RMK A01 T00871014  RH  049%=      5-min Rain = 0
KTA1 211524Z 15010KT 09/M01 A2985 RMK A01 T00871013  RH  050%=      5-min Rain = 0
KTA1 211525Z 15011KT 09/M01 A2985 RMK A01 T00871013  RH  049%=      5-min Rain = 0
KTA1 211526Z 16011KT 09/M01 A2985 RMK A01 T00881013  RH  049%=      5-min Rain = 0
KTA1 211527Z 15010KT 09/M01 A2985 RMK A01 T00881014  RH  049%=      5-min Rain = 0
KTA1 211528Z 15010KT 09/M01 A2985 RMK A01 T00881013  RH  049%=      5-min Rain = 0
KTA1 211529Z 15013KT 09/M01 A2985 RMK A01 T00881013  RH  049%=      5-min Rain = 0
KTA1 211530Z 15012KT 09/M01 A2985 RMK A01 T00881013  RH  049%=      5-min Rain = 0
KTA1 211531Z 16013KT 09/M01 A2985 RMK A01 T00881013  RH  049%=      5-min Rain = 0
KTA1 211532Z 16011KT 09/M01 A2985 RMK A01 T00891013  RH  049%=      5-min Rain = 0
KTA1 211533Z 15012KT 09/M01 A2985 RMK A01 T00891013  RH  049%=      5-min Rain = 0
KTA1 211534Z 16011KT 09/M01 A2985 RMK A01 T00891013  RH  049%=      5-min Rain = 0
KTA1 211535Z 16010KT 09/M01 A2985 RMK A01 T00901012  RH  049%=      5-min Rain = 0
KTA1 211536Z 16013KT 09/M01 A2985 RMK A01 T00911012  RH  049%=      5-min Rain = 0
KTA1 211537Z 15011KT 09/M01 A2985 RMK A01 T00911012  RH  048%=      5-min Rain = 0
KTA1 211538Z 16013KT 09/M01 A2986 RMK A01 T00911012  RH  048%=      5-min Rain = 0
KTA1 211539Z 15010KT 09/M01 A2985 RMK A01 T00911013  RH  048%=      5-min Rain = 0
KTA1 211540Z 16012KT 09/M01 A2986 RMK A01 T00921012  RH  048%=      5-min Rain = 0
KTA1 211541Z 17014KT 09/M01 A2986 RMK A01 T00921013  RH  048%=      5-min Rain = 0
KTA1 211542Z 16010KT 09/M01 A2986 RMK A01 T00921012  RH  048%=      5-min Rain = 0
KTA1 211543Z 16009KT 09/M01 A2986 RMK A01 T00931011  RH  048%=      5-min Rain = 0
KTA1 211544Z 16012KT 09/M01 A2986 RMK A01 T00941011  RH  048%=      5-min Rain = 0
KTA1 211545Z 16012KT 10/M01 A2986 RMK A01 T00951012  RH  047%=      5-min Rain = 0
KTA1 211546Z 17011KT 09/M01 A2986 RMK A01 T00941012  RH  047%=      5-min Rain = 0
KTA1 211547Z 16011G17KT 09/M01 A2986 RMK A01 T00941011  RH  048%=      5-min Rain = 0
KTA1 211548Z 16012KT 10/M01 A2986 RMK A01 T00951012  RH  047%=      5-min Rain = 0
KTA1 211549Z 16009KT 10/M01 A2986 RMK A01 T00951012  RH  047%=      5-min Rain = 0
KTA1 211550Z 16013KT 10/M01 A2986 RMK A01 T00961012  RH  047%=      5-min Rain = 0
KTA1 211551Z 17012KT 10/M01 A2986 RMK A01 T00971012  RH  047%=      5-min Rain = 0
KTA1 211552Z 16015KT 10/M01 A2986 RMK A01 T00971012  RH  046%=      5-min Rain = 0
KTA1 211553Z 17016KT 10/M01 A2986 RMK A01 T00971013  RH  046%=      5-min Rain = 0
KTA1 211554Z 17016KT 10/M01 A2986 RMK A01 T00971013  RH  046%=      5-min Rain = 0
KTA1 211555Z 17015KT 10/M01 A2986 RMK A01 T00961014  RH  046%=      5-min Rain = 0
KTA1 211556Z 16012KT 10/M01 A2986 RMK A01 T00961013  RH  046%=      5-min Rain = 0
KTA1 211557Z 16014KT 10/M01 A2986 RMK A01 T00961012  RH  047%=      5-min Rain = 0
KTA1 211558Z 16013KT 10/M01 A2986 RMK A01 T00971012  RH  046%=      5-min Rain = 0
KTA1 211559Z 16014KT 10/M01 A2986 RMK A01 T00971012  RH  046%=      5-min Rain = 0
KTA1 211600Z 17015KT 10/M01 A2986 RMK A01 T00981013  RH  046%=      5-min Rain = 0
KTA1 211601Z 17013KT 10/M01 A2986 RMK A01 T00981013  RH  046%=      5-min Rain = 0
KTA1 211602Z 16015G20KT 10/M01 A2986 RMK A01 T00981012  RH  046%=      5-min Rain = 0
KTA1 211603Z 16017KT 10/M01 A2986 RMK A01 T00991013  RH  046%=      5-min Rain = 0
KTA1 211604Z 18018KT 10/M01 A2986 RMK A01 T00991014  RH  045%=      5-min Rain = 0
KTA1 211605Z 17014G19KT 10/M01 A2986 RMK A01 T00981014  RH  046%=      5-min Rain = 0
KTA1 211606Z 17016KT 10/M01 A2986 RMK A01 T00981014  RH  046%=      5-min Rain = 0
KTA1 211607Z 16017KT 10/M01 A2986 RMK A01 T00981013  RH  046%=      5-min Rain = 0
KTA1 211608Z 17017G22KT 10/M01 A2986 RMK A01 T00991014  RH  045%=      5-min Rain = 0
KTA1 211609Z 17015KT 10/M01 A2986 RMK A01 T00991014  RH  045%=      5-min Rain = 0
KTA1 211610Z 17016G21KT 10/M01 A2986 RMK A01 T00991013  RH  045%=      5-min Rain = 0
KTA1 211611Z 17016KT 10/M01 A2986 RMK A01 T00991013  RH  045%=      5-min Rain = 0
KTA1 211612Z 17016KT 10/M01 A2986 RMK A01 T01001013  RH  045%=      5-min Rain = 0
KTA1 211613Z 17018KT 10/M01 A2986 RMK A01 T01001014  RH  045%=      5-min Rain = 0
KTA1 211614Z 17015KT 10/M01 A2986 RMK A01 T01001014  RH  045%=      5-min Rain = 0
KTA1 211615Z 16014KT 10/M01 A2986 RMK A01 T01011013  RH  045%=      5-min Rain = 0
KTA1 211616Z 17016KT 10/M01 A2986 RMK A01 T01011013  RH  045%=      5-min Rain = 0
KTA1 211617Z 17018KT 10/M01 A2986 RMK A01 T01021013  RH  045%=      5-min Rain = 0
KTA1 211618Z 17016KT 10/M01 A2986 RMK A01 T01011013  RH  045%=      5-min Rain = 0
KTA1 211619Z 16016G22KT 10/M01 A2986 RMK A01 T01021013  RH  045%=      5-min Rain = 0
KTA1 211620Z 17018KT 10/M01 A2986 RMK A01 T01021013  RH  045%=      5-min Rain = 0
KTA1 211621Z 17015G22KT 10/M01 A2986 RMK A01 T01021013  RH  045%=      5-min Rain = 0
KTA1 211622Z 16017KT 10/M01 A2986 RMK A01 T01021013  RH  045%=      5-min Rain = 0
KTA1 211623Z 17011KT 10/M01 A2986 RMK A01 T01021013  RH  045%=      5-min Rain = 0
KTA1 211624Z 17015G20KT 10/M01 A2986 RMK A01 T01031011  RH  045%=      5-min Rain = 0
KTA1 211625Z 17017KT 10/M01 A2986 RMK A01 T01041012  RH  044%=      5-min Rain = 0
KTA1 211626Z 17015KT 10/M01 A2986 RMK A01 T01041012  RH  044%=      5-min Rain = 0
KTA1 211627Z 17014KT 10/M01 A2986 RMK A01 T01041012  RH  044%=      5-min Rain = 0
KTA1 211628Z 16016KT 10/M01 A2986 RMK A01 T01041012  RH  044%=      5-min Rain = 0
KTA1 211629Z 16019KT 11/M01 A2986 RMK A01 T01051012  RH  044%=      5-min Rain = 0
KTA1 211630Z 16020KT 11/M01 A2986 RMK A01 T01051013  RH  044%=      5-min Rain = 0
KTA1 211631Z 17019KT 11/M01 A2986 RMK A01 T01051013  RH  044%=      5-min Rain = 0
KTA1 211632Z 17016KT 10/M01 A2986 RMK A01 T01041013  RH  044%=      5-min Rain = 0
KTA1 211633Z 17018KT 10/M01 A2986 RMK A01 T01041012  RH  044%=      5-min Rain = 0
KTA1 211634Z 17015KT 11/M01 A2986 RMK A01 T01051012  RH  044%=      5-min Rain = 0
KTA1 211635Z 17014KT 11/M01 A2986 RMK A01 T01061011  RH  044%=      5-min Rain = 0
KTA1 211636Z 16016KT 11/M01 A2985 RMK A01 T01081011  RH  044%=      5-min Rain = 0
KTA1 211637Z 17013G19KT 11/M01 A2985 RMK A01 T01081011  RH  043%=      5-min Rain = 0
KTA1 211638Z 16017KT 11/M01 A2985 RMK A01 T01091010  RH  044%=      5-min Rain = 0
KTA1 211639Z 16019KT 11/M01 A2985 RMK A01 T01101011  RH  043%=      5-min Rain = 0
KTA1 211640Z 16017KT 11/M01 A2985 RMK A01 T01101011  RH  043%=      5-min Rain = 0
KTA1 211641Z 16014KT 11/M01 A2985 RMK A01 T01101011  RH  043%=      5-min Rain = 0
KTA1 211642Z 15014KT 11/M01 A2985 RMK A01 T01111010  RH  043%=      5-min Rain = 0
KTA1 211643Z 16016KT 11/M01 A2984 RMK A01 T01131009  RH  043%=      5-min Rain = 0
KTA1 211644Z 16017KT 11/M01 A2984 RMK A01 T01131010  RH  043%=      5-min Rain = 0
KTA1 211645Z 17019KT 11/M01 A2984 RMK A01 T01131010  RH  042%=      5-min Rain = 0
KTA1 211646Z 16016G22KT 11/M01 A2984 RMK A01 T01121011  RH  042%=      5-min Rain = 0
KTA1 211647Z 16017KT 11/M01 A2984 RMK A01 T01121010  RH  043%=      5-min Rain = 0
KTA1 211648Z 16016KT 11/M01 A2984 RMK A01 T01121010  RH  042%=      5-min Rain = 0
KTA1 211649Z 17017KT 11/M01 A2984 RMK A01 T01131010  RH  042%=      5-min Rain = 0
KTA1 211650Z 16016KT 11/M01 A2984 RMK A01 T01141010  RH  042%=      5-min Rain = 0
KTA1 211651Z 15018KT 12/M01 A2984 RMK A01 T01151009  RH  042%=      5-min Rain = 0
KTA1 211652Z 16018KT 12/M01 A2984 RMK A01 T01151010  RH  042%=      5-min Rain = 0
KTA1 211653Z 16020KT 11/M01 A2984 RMK A01 T01141010  RH  042%=      5-min Rain = 0
KTA1 211654Z 16018KT 11/M01 A2984 RMK A01 T01141011  RH  042%=      5-min Rain = 0
KTA1 211655Z 17021KT 11/M01 A2984 RMK A01 T01141011  RH  042%=      5-min Rain = 0
KTA1 211656Z 17021KT 11/M01 A2984 RMK A01 T01141012  RH  042%=      5-min Rain = 0
KTA1 211657Z 17018G24KT 12/M01 A2984 RMK A01 T01151011  RH  041%=      5-min Rain = 0
KTA1 211658Z 17018G24KT 12/M01 A2984 RMK A01 T01161011  RH  041%=      5-min Rain = 0
KTA1 211659Z 17020KT 12/M01 A2984 RMK A01 T01181010  RH  041%=      5-min Rain = 0
KTA1 211700Z 17020KT 12/M01 A2985 RMK A01 T01191009  RH  041%=      5-min Rain = 0
KTA1 211701Z 17017KT 12/M01 A2985 RMK A01 T01201009  RH  041%=      5-min Rain = 0
KTA1 211702Z 17020KT 12/M01 A2985 RMK A01 T01211009  RH  041%=      5-min Rain = 0
KTA1 211703Z 17016KT 12/M01 A2985 RMK A01 T01211009  RH  041%=      5-min Rain = 0
KTA1 211704Z 17017KT 12/M01 A2985 RMK A01 T01211009  RH  041%=      5-min Rain = 0
KTA1 211705Z 17019KT 12/M01 A2985 RMK A01 T01221009  RH  041%=      5-min Rain = 0
KTA1 211706Z 16016G22KT 12/M01 A2985 RMK A01 T01211009  RH  040%=      5-min Rain = 0
KTA1 211707Z 17021G26KT 12/M01 A2985 RMK A01 T01211009  RH  041%=      5-min Rain = 0
KTA1 211708Z 17019G24KT 12/M01 A2985 RMK A01 T01201011  RH  040%=      5-min Rain = 0
KTA1 211709Z 17019KT 12/M01 A2985 RMK A01 T01201011  RH  040%=      5-min Rain = 0
KTA1 211710Z 18019KT 12/M01 A2984 RMK A01 T01201011  RH  040%=      5-min Rain = 0
KTA1 211711Z 17018KT 12/M01 A2984 RMK A01 T01201011  RH  040%=      5-min Rain = 0
KTA1 211712Z 18017KT 12/M01 A2984 RMK A01 T01211009  RH  041%=      5-min Rain = 0
KTA1 211713Z 17016KT 12/M01 A2985 RMK A01 T01221008  RH  040%=      5-min Rain = 0
KTA1 211714Z 17017G23KT 12/M01 A2985 RMK A01 T01241008  RH  040%=      5-min Rain = 0
KTA1 211715Z 18019KT 13/M01 A2984 RMK A01 T01251009  RH  039%=      5-min Rain = 0
KTA1 211716Z 18020KT 12/M01 A2984 RMK A01 T01241010  RH  039%=      5-min Rain = 0
KTA1 211717Z 17020KT 12/M01 A2984 RMK A01 T01241010  RH  040%=      5-min Rain = 0
KTA1 211718Z 17019KT 13/M01 A2984 RMK A01 T01251008  RH  040%=      5-min Rain = 0
KTA1 211719Z 16017G22KT 13/M01 A2984 RMK A01 T01271008  RH  039%=      5-min Rain = 0
KTA1 211720Z 17017KT 13/M01 A2984 RMK A01 T01271008  RH  039%=      5-min Rain = 0
KTA1 211721Z 17020KT 13/M01 A2984 RMK A01 T01291008  RH  039%=      5-min Rain = 0
KTA1 211722Z 17019KT 13/M01 A2984 RMK A01 T01291008  RH  039%=      5-min Rain = 0
KTA1 211723Z 16016KT 13/M01 A2983 RMK A01 T01301007  RH  039%=      5-min Rain = 0
KTA1 211724Z 17019KT 13/M01 A2983 RMK A01 T01321006  RH  038%=      5-min Rain = 0
KTA1 211725Z 17017G22KT 13/M01 A2983 RMK A01 T01331007  RH  038%=      5-min Rain = 0
KTA1 211726Z 17019KT 13/M01 A2983 RMK A01 T01331006  RH  038%=      5-min Rain = 0
KTA1 211727Z 16017KT 13/M01 A2983 RMK A01 T01331006  RH  038%=      5-min Rain = 0
KTA1 211728Z 16017KT 14/M01 A2983 RMK A01 T01351006  RH  038%=      5-min Rain = 0
KTA1 211729Z 16020G25KT 14/M01 A2982 RMK A01 T01351007  RH  038%=      5-min Rain = 0
KTA1 211730Z 16015KT 13/M01 A2983 RMK A01 T01341007  RH  038%=      5-min Rain = 0
KTA1 211731Z 16022KT 14/M01 A2982 RMK A01 T01351007  RH  037%=      5-min Rain = 0
KTA1 211732Z 15016KT 13/M01 A2983 RMK A01 T01341008  RH  038%=      5-min Rain = 0
KTA1 211733Z 16019KT 13/M01 A2983 RMK A01 T01341007  RH  038%=      5-min Rain = 0
KTA1 211734Z 17020G25KT 14/M01 A2982 RMK A01 T01351008  RH  037%=      5-min Rain = 0
KTA1 211735Z 16016KT 14/M01 A2982 RMK A01 T01351007  RH  038%=      5-min Rain = 0
KTA1 211736Z 17018G24KT 14/M01 A2982 RMK A01 T01371006  RH  037%=      5-min Rain = 0
KTA1 211737Z 17016KT 14/M01 A2982 RMK A01 T01371007  RH  037%=      5-min Rain = 0
KTA1 211738Z 17015G21KT 14/M01 A2982 RMK A01 T01381005  RH  037%=      5-min Rain = 0
KTA1 211739Z 17019KT 14/M00 A2982 RMK A01 T01411004  RH  037%=      5-min Rain = 0
KTA1 211740Z 16016G21KT 14/M01 A2982 RMK A01 T01401005  RH  037%=      5-min Rain = 0
KTA1 211741Z 16017G22KT 14/M00 A2982 RMK A01 T01401004  RH  037%=      5-min Rain = 0
KTA1 211742Z 15020KT 14/M00 A2981 RMK A01 T01401004  RH  037%=      5-min Rain = 0
KTA1 211743Z 15019KT 14/M00 A2981 RMK A01 T01401004  RH  037%=      5-min Rain = 0
KTA1 211744Z 16018KT 14/M00 A2981 RMK A01 T01401004  RH  037%=      5-min Rain = 0
KTA1 211745Z 16022KT 14/M00 A2981 RMK A01 T01411004  RH  037%=      5-min Rain = 0
KTA1 211746Z 16018KT 14/M01 A2981 RMK A01 T01401005  RH  037%=      5-min Rain = 0
KTA1 211747Z 16020KT 14/M01 A2981 RMK A01 T01401005  RH  037%=      5-min Rain = 0
KTA1 211748Z 15021KT 14/M01 A2981 RMK A01 T01391006  RH  037%=      5-min Rain = 0
KTA1 211749Z 16020KT 14/M00 A2981 RMK A01 T01391004  RH  037%=      5-min Rain = 0
KTA1 211750Z 17020G25KT 14/M01 A2981 RMK A01 T01381005  RH  037%=      5-min Rain = 0
KTA1 211751Z 16017KT 14/M00 A2981 RMK A01 T01391004  RH  037%=      5-min Rain = 0
KTA1 211752Z 16017KT 14/M00 A2981 RMK A01 T01421001  RH  038%=      5-min Rain = 0
KTA1 211753Z 15016KT 15/M00 A2981 RMK A01 T01451001  RH  037%=      5-min Rain = 0
KTA1 211754Z 16016G21KT 15/M00 A2981 RMK A01 T01451001  RH  037%=      5-min Rain = 0
KTA1 211755Z 16017KT 15/M00 A2981 RMK A01 T01451001  RH  037%=      5-min Rain = 0
KTA1 211756Z 15015KT 15/M00 A2981 RMK A01 T01451001  RH  037%=      5-min Rain = 0
KTA1 211757Z 15021KT 15/M00 A2981 RMK A01 T01461001  RH  037%=      5-min Rain = 0
KTA1 211758Z 15018KT 15/M00 A2981 RMK A01 T01451002  RH  036%=      5-min Rain = 0
KTA1 211759Z 16013G20KT 14/M00 A2981 RMK A01 T01441002  RH  037%=      5-min Rain = 0
KTA1 211800Z 16016KT 15/00 A2981 RMK A01 T01470001  RH  037%=      5-min Rain = 0
KTA1 211801Z 16017G22KT 15/M00 A2981 RMK A01 T01471001  RH  036%=      5-min Rain = 0
KTA1 211802Z 15019KT 15/M00 A2982 RMK A01 T01461001  RH  036%=      5-min Rain = 0
KTA1 211803Z 15020KT 15/M00 A2982 RMK A01 T01451001  RH  037%=      5-min Rain = 0
KTA1 211804Z 16018KT 14/M00 A2982 RMK A01 T01441001  RH  037%=      5-min Rain = 0
KTA1 211805Z 17015KT 15/00 A2982 RMK A01 T014500-0  RH  037%=      5-min Rain = 0
KTA1 211806Z 15018G23KT 15/00 A2982 RMK A01 T014700-0  RH  037%=      5-min Rain = 0
KTA1 211807Z 16015KT 15/00 A2982 RMK A01 T01480000  RH  036%=      5-min Rain = 0
KTA1 211808Z 16015KT 15/00 A2982 RMK A01 T01500000  RH  036%=      5-min Rain = 0
KTA1 211809Z 16015G21KT 15/00 A2982 RMK A01 T01510001  RH  036%=      5-min Rain = 0
KTA1 211810Z 16020KT 15/00 A2982 RMK A01 T01500000  RH  036%=      5-min Rain = 0
KTA1 211811Z 16019KT 15/M00 A2982 RMK A01 T01501001  RH  035%=      5-min Rain = 0
KTA1 211812Z 16014KT 15/M00 A2982 RMK A01 T01491001  RH  036%=      5-min Rain = 0
KTA1 211813Z 16014KT 15/00 A2982 RMK A01 T01500001  RH  036%=      5-min Rain = 0
KTA1 211814Z 16018KT 15/00 A2982 RMK A01 T01520000  RH  035%=      5-min Rain = 0
KTA1 211815Z 16020KT 15/M00 A2982 RMK A01 T01511001  RH  035%=      5-min Rain = 0
KTA1 211816Z 17014G19KT 15/M00 A2982 RMK A01 T01491002  RH  036%=      5-min Rain = 0
KTA1 211817Z 17017KT 15/00 A2982 RMK A01 T01510000  RH  036%=      5-min Rain = 0
KTA1 211818Z 16015KT 15/00 A2982 RMK A01 T01540001  RH  035%=      5-min Rain = 0
KTA1 211819Z 15016G21KT 16/00 A2982 RMK A01 T01550003  RH  035%=      5-min Rain = 0
KTA1 211820Z 16020KT 16/00 A2982 RMK A01 T01560002  RH  035%=      5-min Rain = 0
KTA1 211821Z 16019KT 16/00 A2982 RMK A01 T01550000  RH  035%=      5-min Rain = 0
KTA1 211822Z 15018KT 15/00 A2982 RMK A01 T01540001  RH  035%=      5-min Rain = 0
KTA1 211823Z 16019KT 15/00 A2982 RMK A01 T01530000  RH  035%=      5-min Rain = 0
KTA1 211824Z 17017KT 15/00 A2982 RMK A01 T015100-0  RH  036%=      5-min Rain = 0
KTA1 211825Z 17018KT 15/00 A2982 RMK A01 T01510000  RH  036%=      5-min Rain = 0
KTA1 211826Z 17017KT 15/00 A2982 RMK A01 T01520000  RH  035%=      5-min Rain = 0
KTA1 211827Z 17014KT 15/00 A2982 RMK A01 T015200-0  RH  035%=      5-min Rain = 0
KTA1 211828Z 17016KT 15/00 A2982 RMK A01 T01520000  RH  035%=      5-min Rain = 0
KTA1 211829Z 16014KT 15/00 A2982 RMK A01 T01510001  RH  036%=      5-min Rain = 0
KTA1 211830Z 16014KT 15/00 A2982 RMK A01 T01520003  RH  036%=      5-min Rain = 0
KTA1 211831Z 17017KT 16/01 A2982 RMK A01 T01570005  RH  036%=      5-min Rain = 0
KTA1 211832Z 17015KT 16/00 A2982 RMK A01 T01580001  RH  034%=      5-min Rain = 0
KTA1 211833Z 16017G23KT 16/00 A2982 RMK A01 T01570002  RH  035%=      5-min Rain = 0
KTA1 211834Z 15018KT 16/00 A2982 RMK A01 T01570002  RH  035%=      5-min Rain = 0
KTA1 211835Z 16016G24KT 16/00 A2982 RMK A01 T01560002  RH  035%=      5-min Rain = 0
KTA1 211836Z 17019KT 16/00 A2982 RMK A01 T01570002  RH  035%=      5-min Rain = 0
KTA1 211837Z 17013G18KT 16/00 A2982 RMK A01 T01580001  RH  034%=      5-min Rain = 0
KTA1 211838Z 17011KT 16/00 A2982 RMK A01 T01600003  RH  034%=      5-min Rain = 0
KTA1 211839Z 17012KT 16/00 A2982 RMK A01 T01620004  RH  034%=      5-min Rain = 0
KTA1 211840Z 18014G20KT 16/00 A2982 RMK A01 T01630004  RH  034%=      5-min Rain = 0
KTA1 211841Z 17016G22KT 16/00 A2982 RMK A01 T01620003  RH  034%=      5-min Rain = 0
KTA1 211842Z 17017KT 16/00 A2982 RMK A01 T01610001  RH  034%=      5-min Rain = 0
KTA1 211843Z 19016KT 16/00 A2982 RMK A01 T01600001  RH  034%=      5-min Rain = 0
KTA1 211844Z 17012KT 16/M00 A2981 RMK A01 T01571002  RH  034%=      5-min Rain = 0
KTA1 211845Z 16013G19KT 16/00 A2981 RMK A01 T01570003  RH  035%=      5-min Rain = 0
KTA1 211846Z 17018KT 16/01 A2981 RMK A01 T01620005  RH  034%=      5-min Rain = 0
KTA1 211847Z 17017G22KT 16/00 A2981 RMK A01 T01620002  RH  034%=      5-min Rain = 0
KTA1 211848Z 17015KT 16/00 A2981 RMK A01 T01600001  RH  034%=      5-min Rain = 0
KTA1 211849Z 16014KT 16/00 A2981 RMK A01 T01590003  RH  035%=      5-min Rain = 0
KTA1 211850Z 15012KT 16/01 A2981 RMK A01 T01610005  RH  035%=      5-min Rain = 0
KTA1 211851Z 17015KT 16/01 A2981 RMK A01 T01630005  RH  034%=      5-min Rain = 0
KTA1 211852Z 17020KT 16/00 A2981 RMK A01 T01630003  RH  034%=      5-min Rain = 0
KTA1 211853Z 16016KT 16/00 A2981 RMK A01 T01610001  RH  034%=      5-min Rain = 0
KTA1 211854Z 17015KT 16/00 A2981 RMK A01 T01590002  RH  034%=      5-min Rain = 0
KTA1 211855Z 17013G19KT 16/00 A2981 RMK A01 T01590003  RH  034%=      5-min Rain = 0
KTA1 211856Z 17019KT 16/00 A2981 RMK A01 T01600003  RH  034%=      5-min Rain = 0
KTA1 211857Z 17014G19KT 16/00 A2981 RMK A01 T01590001  RH  034%=      5-min Rain = 0
KTA1 211858Z 16017KT 16/00 A2981 RMK A01 T01580003  RH  035%=      5-min Rain = 0
KTA1 211859Z 14018KT 16/00 A2981 RMK A01 T01590004  RH  035%=      5-min Rain = 0
KTA1 211900Z 15015KT 16/00 A2981 RMK A01 T01600004  RH  035%=      5-min Rain = 0
KTA1 211901Z 16018G24KT 16/01 A2981 RMK A01 T01630006  RH  034%=      5-min Rain = 0
KTA1 211902Z 16017KT 16/00 A2981 RMK A01 T01640004  RH  034%=      5-min Rain = 0
KTA1 211903Z 16019KT 16/00 A2981 RMK A01 T01630004  RH  034%=      5-min Rain = 0
KTA1 211904Z 16015KT 16/00 A2981 RMK A01 T01610003  RH  034%=      5-min Rain = 0
KTA1 211905Z 16013KT 16/00 A2981 RMK A01 T01600004  RH  035%=      5-min Rain = 0
KTA1 211906Z 16016KT 16/01 A2981 RMK A01 T01600005  RH  035%=      5-min Rain = 0
KTA1 211907Z 15015KT 16/01 A2981 RMK A01 T01610005  RH  035%=      5-min Rain = 0
KTA1 211908Z 16017KT 16/01 A2981 RMK A01 T01630007  RH  035%=      5-min Rain = 0
KTA1 211909Z 16016KT 17/01 A2981 RMK A01 T01650005  RH  034%=      5-min Rain = 0
KTA1 211910Z 18012G17KT 16/00 A2981 RMK A01 T01640003  RH  034%=      5-min Rain = 0
KTA1 211911Z 17011KT 17/00 A2981 RMK A01 T01660001  RH  033%=      5-min Rain = 0
KTA1 211912Z 16016KT 17/00 A2981 RMK A01 T01660002  RH  033%=      5-min Rain = 0
KTA1 211913Z 15014KT 17/01 A2981 RMK A01 T01670005  RH  033%=      5-min Rain = 0
KTA1 211914Z 15015KT 17/01 A298 RMK A01 T01660006  RH  034%=      5-min Rain = 0
KTA1 211915Z 15016KT 17/01 A298 RMK A01 T01670006  RH  034%=      5-min Rain = 0
KTA1 211916Z 15017KT 17/01 A298 RMK A01 T01670007  RH  034%=      5-min Rain = 0
KTA1 211917Z 15016G21KT 17/01 A298 RMK A01 T01680006  RH  033%=      5-min Rain = 0
KTA1 211918Z 14017KT 17/01 A298 RMK A01 T01660006  RH  034%=      5-min Rain = 0
KTA1 211919Z 14017KT 17/01 A298 RMK A01 T01670006  RH  034%=      5-min Rain = 0
KTA1 211920Z 14017G23KT 17/01 A298 RMK A01 T01680005  RH  033%=      5-min Rain = 0
KTA1 211921Z 14020KT 17/01 A298 RMK A01 T01680005  RH  033%=      5-min Rain = 0
KTA1 211922Z 14014G19KT 17/01 A298 RMK A01 T01670006  RH  033%=      5-min Rain = 0
KTA1 211923Z 14017KT 17/01 A298 RMK A01 T01680007  RH  034%=      5-min Rain = 0
KTA1 211924Z 15019KT 17/01 A298 RMK A01 T01690007  RH  033%=      5-min Rain = 0
KTA1 211925Z 14018KT 17/01 A298 RMK A01 T01690007  RH  033%=      5-min Rain = 0
KTA1 211926Z 14016KT 17/01 A298 RMK A01 T01670005  RH  033%=      5-min Rain = 0
KTA1 211927Z 13019G24KT 17/01 A2979 RMK A01 T01660007  RH  034%=      5-min Rain = 0
KTA1 211928Z 14020KT 17/01 A2979 RMK A01 T01660006  RH  034%=      5-min Rain = 0
KTA1 211929Z 15016KT 17/01 A2979 RMK A01 T01650007  RH  034%=      5-min Rain = 0
KTA1 211930Z 15019KT 17/01 A2979 RMK A01 T01670008  RH  034%=      5-min Rain = 0
KTA1 211931Z 15015KT 17/01 A2979 RMK A01 T01670007  RH  034%=      5-min Rain = 0
KTA1 211932Z 14017KT 17/01 A2979 RMK A01 T01650007  RH  034%=      5-min Rain = 0
KTA1 211933Z 14016KT 17/01 A2979 RMK A01 T01660007  RH  034%=      5-min Rain = 0
KTA1 211934Z 16013G18KT 17/01 A2979 RMK A01 T01670008  RH  034%=      5-min Rain = 0
KTA1 211935Z 17014KT 17/01 A2979 RMK A01 T01700007  RH  033%=      5-min Rain = 0
KTA1 211936Z 16015KT 17/01 A2979 RMK A01 T01700006  RH  033%=      5-min Rain = 0
KTA1 211937Z 15014KT 17/01 A2979 RMK A01 T01700007  RH  033%=      5-min Rain = 0
KTA1 211938Z 14018KT 17/01 A2979 RMK A01 T01690007  RH  033%=      5-min Rain = 0
KTA1 211939Z 14018KT 17/01 A2979 RMK A01 T01710008  RH  033%=      5-min Rain = 0
KTA1 211940Z 15016KT 17/01 A2979 RMK A01 T01690007  RH  033%=      5-min Rain = 0
KTA1 211941Z 13016KT 17/01 A2979 RMK A01 T01670006  RH  034%=      5-min Rain = 0
KTA1 211942Z 14015KT 17/01 A2979 RMK A01 T01680007  RH  034%=      5-min Rain = 0
KTA1 211943Z 14012KT 17/01 A2978 RMK A01 T01690007  RH  033%=      5-min Rain = 0
KTA1 211944Z 16015KT 17/01 A2978 RMK A01 T01700008  RH  033%=      5-min Rain = 0
KTA1 211945Z 14016KT 17/01 A2978 RMK A01 T01710008  RH  033%=      5-min Rain = 0
KTA1 211946Z 13016KT 17/01 A2978 RMK A01 T01710008  RH  033%=      5-min Rain = 0
KTA1 211947Z 14016KT 17/01 A2978 RMK A01 T01730008  RH  033%=      5-min Rain = 0
KTA1 211948Z 15017KT 17/01 A2978 RMK A01 T01740009  RH  033%=      5-min Rain = 0
KTA1 211949Z 14014KT 17/01 A2978 RMK A01 T01720007  RH  033%=      5-min Rain = 0
KTA1 211950Z 15020KT 17/01 A2978 RMK A01 T01710007  RH  033%=      5-min Rain = 0
KTA1 211951Z 15017KT 17/01 A2978 RMK A01 T01710007  RH  033%=      5-min Rain = 0
KTA1 211952Z 15012G17KT 17/01 A2978 RMK A01 T01700007  RH  033%=      5-min Rain = 0
KTA1 211953Z 16016KT 17/01 A2978 RMK A01 T01690008  RH  034%=      5-min Rain = 0
KTA1 211954Z 15013G18KT 17/01 A2978 RMK A01 T01690007  RH  034%=      5-min Rain = 0
KTA1 211955Z 15015KT 17/01 A2978 RMK A01 T01700008  RH  033%=      5-min Rain = 0
KTA1 211956Z 14013KT 17/01 A2978 RMK A01 T01700007  RH  033%=      5-min Rain = 0
KTA1 211957Z 14014KT 17/01 A2978 RMK A01 T01710007  RH  033%=      5-min Rain = 0
KTA1 211958Z 14015KT 18/01 A2978 RMK A01 T01750009  RH  033%=      5-min Rain = 0
KTA1 211959Z 13013KT 18/01 A2978 RMK A01 T01750007  RH  032%=      5-min Rain = 0
KTA1 212000Z 14015KT 17/01 A2978 RMK A01 T01740008  RH  033%=      5-min Rain = 0
KTA1 212001Z 14015G23KT 17/01 A2977 RMK A01 T01740009  RH  033%=      5-min Rain = 0
KTA1 212002Z 14020KT 18/01 A2977 RMK A01 T01750008  RH  032%=      5-min Rain = 0
KTA1 212003Z 14020KT 17/01 A2977 RMK A01 T01740007  RH  032%=      5-min Rain = 0
KTA1 212004Z 15020KT 17/01 A2977 RMK A01 T01740007  RH  032%=      5-min Rain = 0
KTA1 212005Z 15016G21KT 17/01 A2977 RMK A01 T01730007  RH  033%=      5-min Rain = 0
KTA1 212006Z 13017KT 17/01 A2977 RMK A01 T01710007  RH  033%=      5-min Rain = 0
KTA1 212007Z 15017KT 17/01 A2977 RMK A01 T01700006  RH  033%=      5-min Rain = 0
KTA1 212008Z 16016KT 17/01 A2977 RMK A01 T01700006  RH  033%=      5-min Rain = 0
KTA1 212009Z 15016KT 17/01 A2977 RMK A01 T01720008  RH  033%=      5-min Rain = 0
KTA1 212010Z 14015KT 17/01 A2977 RMK A01 T01730007  RH  032%=      5-min Rain = 0
KTA1 212011Z 14016KT 17/01 A2977 RMK A01 T01730006  RH  032%=      5-min Rain = 0
KTA1 212012Z 15014KT 17/01 A2977 RMK A01 T01730008  RH  033%=      5-min Rain = 0
KTA1 212013Z 17013KT 17/01 A2977 RMK A01 T01740007  RH  032%=      5-min Rain = 0
KTA1 212014Z 15014KT 17/01 A2977 RMK A01 T01740007  RH  032%=      5-min Rain = 0
KTA1 212015Z 15015G20KT 17/01 A2977 RMK A01 T01740008  RH  033%=      5-min Rain = 0
KTA1 212016Z 15015KT 17/01 A2977 RMK A01 T01740008  RH  033%=      5-min Rain = 0
KTA1 212017Z 14016KT 17/01 A2977 RMK A01 T01740008  RH  033%=      5-min Rain = 0
KTA1 212018Z 16017KT 18/01 A2977 RMK A01 T01750008  RH  033%=      5-min Rain = 0
KTA1 212019Z 15017KT 18/01 A2977 RMK A01 T01760009  RH  032%=      5-min Rain = 0
KTA1 212020Z 14017KT 18/01 A2977 RMK A01 T01760009  RH  032%=      5-min Rain = 0
KTA1 212021Z 15016KT 18/01 A2977 RMK A01 T01750007  RH  032%=      5-min Rain = 0
KTA1 212022Z 15015G20KT 18/01 A2977 RMK A01 T01750008  RH  032%=      5-min Rain = 0
KTA1 212023Z 16014KT 18/01 A2976 RMK A01 T01780010  RH  032%=      5-min Rain = 0
KTA1 212024Z 15013KT 18/01 A2976 RMK A01 T01790008  RH  032%=      5-min Rain = 0
KTA1 212025Z 15018KT 18/01 A2976 RMK A01 T01790008  RH  032%=      5-min Rain = 0
KTA1 212026Z 15020KT 18/01 A2976 RMK A01 T01780007  RH  032%=      5-min Rain = 0
KTA1 212027Z 15020KT 18/01 A2976 RMK A01 T01760008  RH  032%=      5-min Rain = 0
KTA1 212028Z 14020KT 18/01 A2976 RMK A01 T01750007  RH  032%=      5-min Rain = 0
KTA1 212029Z 14015KT 18/01 A2976 RMK A01 T01750007  RH  032%=      5-min Rain = 0
KTA1 212030Z 15016KT 18/01 A2976 RMK A01 T01750007  RH  032%=      5-min Rain = 0
KTA1 212031Z 15016KT 18/01 A2976 RMK A01 T01760007  RH  032%=      5-min Rain = 0
KTA1 212032Z 14016KT 18/01 A2976 RMK A01 T01750006  RH  032%=      5-min Rain = 0
KTA1 212033Z 13019KT 18/01 A2976 RMK A01 T01770009  RH  032%=      5-min Rain = 0
KTA1 212034Z 15016KT 18/01 A2976 RMK A01 T01770011  RH  033%=      5-min Rain = 0
KTA1 212035Z 16014KT 18/01 A2976 RMK A01 T01790008  RH  032%=      5-min Rain = 0
KTA1 212036Z 16013KT 18/01 A2976 RMK A01 T01790008  RH  032%=      5-min Rain = 0
KTA1 212037Z 16015G20KT 18/01 A2976 RMK A01 T01800007  RH  031%=      5-min Rain = 0
KTA1 212038Z 13016KT 18/01 A2976 RMK A01 T01780010  RH  032%=      5-min Rain = 0
KTA1 212039Z 13016G21KT 17/01 A2976 RMK A01 T01740011  RH  033%=      5-min Rain = 0
KTA1 212040Z 14018KT 18/01 A2976 RMK A01 T01760009  RH  032%=      5-min Rain = 0
KTA1 212041Z 15016KT 18/01 A2976 RMK A01 T01770008  RH  032%=      5-min Rain = 0
KTA1 212042Z 15015KT 18/01 A2976 RMK A01 T01790009  RH  032%=      5-min Rain = 0
KTA1 212043Z 14019KT 18/01 A2976 RMK A01 T01770010  RH  033%=      5-min Rain = 0
KTA1 212044Z 15019KT 18/01 A2976 RMK A01 T01750010  RH  033%=      5-min Rain = 0
KTA1 212045Z 15017KT 17/01 A2976 RMK A01 T01730010  RH  033%=      5-min Rain = 0
KTA1 212046Z 14018KT 17/01 A2976 RMK A01 T01720011  RH  034%=      5-min Rain = 0
KTA1 212047Z 14015G20KT 17/01 A2976 RMK A01 T01740010  RH  033%=      5-min Rain = 0
KTA1 212048Z 15017KT 18/01 A2975 RMK A01 T01750011  RH  033%=      5-min Rain = 0
KTA1 212049Z 13018KT 18/01 A2975 RMK A01 T01760011  RH  033%=      5-min Rain = 0
KTA1 212050Z 13021KT 18/01 A2975 RMK A01 T01780011  RH  032%=      5-min Rain = 0
KTA1 212051Z 14020KT 18/01 A2975 RMK A01 T01760010  RH  033%=      5-min Rain = 0
KTA1 212052Z 14019KT 18/01 A2975 RMK A01 T01750011  RH  033%=      5-min Rain = 0
KTA1 212053Z 14020KT 18/01 A2976 RMK A01 T01750011  RH  033%=      5-min Rain = 0
KTA1 212054Z 14020KT 18/01 A2975 RMK A01 T01760010  RH  033%=      5-min Rain = 0
KTA1 212055Z 13017KT 17/01 A2975 RMK A01 T01740010  RH  033%=      5-min Rain = 0
KTA1 212056Z 13019KT 17/01 A2975 RMK A01 T01740011  RH  033%=      5-min Rain = 0
KTA1 212057Z 14017KT 18/01 A2975 RMK A01 T01780014  RH  033%=      5-min Rain = 0
KTA1 212058Z 14019KT 18/01 A2975 RMK A01 T01790012  RH  032%=      5-min Rain = 0
KTA1 212059Z 15017KT 18/01 A2975 RMK A01 T01770010  RH  032%=      5-min Rain = 0
KTA1 212100Z 14016G22KT 18/01 A2975 RMK A01 T01760011  RH  033%=      5-min Rain = 0
KTA1 212101Z 14018KT 18/01 A2975 RMK A01 T01760012  RH  033%=      5-min Rain = 0
KTA1 212102Z 14020KT 18/01 A2975 RMK A01 T01760012  RH  033%=      5-min Rain = 0
KTA1 212103Z 15016KT 18/01 A2975 RMK A01 T01750012  RH  033%=      5-min Rain = 0
KTA1 212104Z 14016G21KT 18/01 A2975 RMK A01 T01750013  RH  033%=      5-min Rain = 0
KTA1 212105Z 14016G21KT 18/01 A2975 RMK A01 T01780013  RH  033%=      5-min Rain = 0
KTA1 212106Z 15015KT 18/01 A2975 RMK A01 T01800012  RH  032%=      5-min Rain = 0
KTA1 212107Z 15018KT 18/01 A2975 RMK A01 T01770010  RH  032%=      5-min Rain = 0
KTA1 212108Z 15015KT 17/01 A2975 RMK A01 T01730009  RH  033%=      5-min Rain = 0
KTA1 212109Z 15017KT 17/01 A2975 RMK A01 T01730010  RH  033%=      5-min Rain = 0
KTA1 212110Z 15017G22KT 17/01 A2975 RMK A01 T01730012  RH  034%=      5-min Rain = 0
KTA1 212111Z 15015KT 17/01 A2975 RMK A01 T01740012  RH  034%=      5-min Rain = 0
KTA1 212112Z 14016KT 18/01 A2975 RMK A01 T01750013  RH  034%=      5-min Rain = 0
KTA1 212113Z 14016G22KT 18/01 A2975 RMK A01 T01760013  RH  033%=      5-min Rain = 0
KTA1 212114Z 14016G21KT 18/01 A2975 RMK A01 T01770013  RH  033%=      5-min Rain = 0
KTA1 212115Z 14016G21KT 18/02 A2975 RMK A01 T01790015  RH  033%=      5-min Rain = 0
KTA1 212116Z 14021KT 18/01 A2975 RMK A01 T01810013  RH  032%=      5-min Rain = 0
KTA1 212117Z 14016KT 18/01 A2976 RMK A01 T01790012  RH  032%=      5-min Rain = 0
KTA1 212118Z 14015KT 18/01 A2976 RMK A01 T01790012  RH  033%=      5-min Rain = 0
KTA1 212119Z 15017KT 18/01 A2975 RMK A01 T01810014  RH  033%=      5-min Rain = 0
KTA1 212120Z 15018KT 18/01 A2975 RMK A01 T01800011  RH  032%=      5-min Rain = 0
KTA1 212121Z 15016KT 18/01 A2976 RMK A01 T01780012  RH  033%=      5-min Rain = 0
KTA1 212122Z 15017KT 18/01 A2976 RMK A01 T01780010  RH  032%=      5-min Rain = 0
KTA1 212123Z 15016KT 18/01 A2975 RMK A01 T01750009  RH  033%=      5-min Rain = 0
KTA1 212124Z 15019KT 18/01 A2975 RMK A01 T01750009  RH  033%=      5-min Rain = 0
KTA1 212125Z 14015KT 17/01 A2975 RMK A01 T01740008  RH  033%=      5-min Rain = 0
KTA1 212126Z 13018KT 17/01 A2975 RMK A01 T01740009  RH  033%=      5-min Rain = 0
KTA1 212127Z 14017KT 17/01 A2975 RMK A01 T01740010  RH  033%=      5-min Rain = 0
KTA1 212128Z 14017KT 18/01 A2975 RMK A01 T01760011  RH  033%=      5-min Rain = 0
KTA1 212129Z 13016KT 18/01 A2975 RMK A01 T01760011  RH  033%=      5-min Rain = 0
KTA1 212130Z 14018G23KT 18/01 A2975 RMK A01 T01760012  RH  033%=      5-min Rain = 0
KTA1 212131Z 14019KT 18/01 A2975 RMK A01 T01770010  RH  032%=      5-min Rain = 0
KTA1 212132Z 14016KT 18/01 A2975 RMK A01 T01780009  RH  032%=      5-min Rain = 0
KTA1 212133Z 15015KT 18/01 A2975 RMK A01 T01780010  RH  032%=      5-min Rain = 0
KTA1 212134Z 15015KT 18/01 A2975 RMK A01 T01770013  RH  033%=      5-min Rain = 0
KTA1 212135Z 15016KT 18/01 A2975 RMK A01 T01780014  RH  033%=      5-min Rain = 0
KTA1 212136Z 15015KT 18/01 A2975 RMK A01 T01770012  RH  033%=      5-min Rain = 0
KTA1 212137Z 15016KT 17/01 A2975 RMK A01 T01740012  RH  033%=      5-min Rain = 0
KTA1 212138Z 15016KT 18/01 A2975 RMK A01 T01750012  RH  033%=      5-min Rain = 0
KTA1 212139Z 15014KT 18/01 A2975 RMK A01 T01760011  RH  033%=      5-min Rain = 0
KTA1 212140Z 15013KT 18/01 A2975 RMK A01 T01760012  RH  033%=      5-min Rain = 0
KTA1 212141Z 15014KT 18/01 A2975 RMK A01 T01790013  RH  033%=      5-min Rain = 0
KTA1 212142Z 15014KT 18/01 A2975 RMK A01 T01800012  RH  032%=      5-min Rain = 0
KTA1 212143Z 16013KT 18/01 A2975 RMK A01 T01810012  RH  032%=      5-min Rain = 0
KTA1 212144Z 15015KT 18/01 A2975 RMK A01 T01810011  RH  032%=      5-min Rain = 0
KTA1 212145Z 15017KT 18/01 A2975 RMK A01 T01810009  RH  031%=      5-min Rain = 0
KTA1 212146Z 14015KT 18/01 A2975 RMK A01 T01790007  RH  031%=      5-min Rain = 0
KTA1 212147Z 15012G17KT 18/01 A2975 RMK A01 T01780009  RH  032%=      5-min Rain = 0
KTA1 212148Z 15016KT 18/01 A2975 RMK A01 T01800011  RH  032%=      5-min Rain = 0
KTA1 212149Z 14020KT 18/01 A2975 RMK A01 T01800013  RH  033%=      5-min Rain = 0
KTA1 212150Z 13016KT 18/01 A2975 RMK A01 T01790014  RH  033%=      5-min Rain = 0
KTA1 212151Z 13019KT 18/01 A2975 RMK A01 T01780014  RH  033%=      5-min Rain = 0
KTA1 212152Z 14018KT 18/01 A2975 RMK A01 T01790014  RH  033%=      5-min Rain = 0
KTA1 212153Z 13018KT 18/01 A2975 RMK A01 T01780012  RH  033%=      5-min Rain = 0
KTA1 212154Z 13017KT 18/01 A2975 RMK A01 T01770011  RH  033%=      5-min Rain = 0
KTA1 212155Z 13018KT 18/01 A2975 RMK A01 T01760011  RH  033%=      5-min Rain = 0
KTA1 212156Z 13020KT 18/01 A2975 RMK A01 T01760012  RH  033%=      5-min Rain = 0
KTA1 212157Z 14017KT 18/01 A2975 RMK A01 T01780014  RH  033%=      5-min Rain = 0
KTA1 212158Z 14019KT 18/01 A2975 RMK A01 T01790014  RH  033%=      5-min Rain = 0
KTA1 212159Z 13020KT 18/02 A2975 RMK A01 T01790015  RH  033%=      5-min Rain = 0
KTA1 212200Z 14017KT 18/01 A2975 RMK A01 T01790013  RH  033%=      5-min Rain = 0
KTA1 212201Z 14016G22KT 18/01 A2975 RMK A01 T01770013  RH  033%=      5-min Rain = 0
KTA1 212202Z 13017KT 18/01 A2975 RMK A01 T01770013  RH  033%=      5-min Rain = 0
KTA1 212203Z 13018KT 18/01 A2975 RMK A01 T01770014  RH  033%=      5-min Rain = 0
KTA1 212204Z 13020KT 18/01 A2975 RMK A01 T01760014  RH  034%=      5-min Rain = 0
KTA1 212205Z 13016KT 18/02 A2975 RMK A01 T01770015  RH  034%=      5-min Rain = 0
KTA1 212206Z 13018KT 18/02 A2975 RMK A01 T01770016  RH  034%=      5-min Rain = 0
KTA1 212207Z 14017KT 18/02 A2975 RMK A01 T01750016  RH  034%=      5-min Rain = 0
KTA1 212208Z 15017KT 17/02 A2975 RMK A01 T01740017  RH  035%=      5-min Rain = 0
KTA1 212209Z 14016KT 18/02 A2975 RMK A01 T01760015  RH  034%=      5-min Rain = 0
KTA1 212210Z 13019KT 18/02 A2975 RMK A01 T01750015  RH  034%=      5-min Rain = 0
KTA1 212211Z 13020KT 18/02 A2975 RMK A01 T01760017  RH  035%=      5-min Rain = 0
KTA1 212212Z 15018KT 18/02 A2975 RMK A01 T01770018  RH  034%=      5-min Rain = 0
KTA1 212213Z 15017G22KT 18/02 A2975 RMK A01 T01760018  RH  034%=      5-min Rain = 0
KTA1 212214Z 14021KT 18/02 A2975 RMK A01 T01760018  RH  035%=      5-min Rain = 0
KTA1 212215Z 13017KT 18/02 A2975 RMK A01 T01760016  RH  034%=      5-min Rain = 0
KTA1 212216Z 13019KT 18/02 A2975 RMK A01 T01760016  RH  034%=      5-min Rain = 0
KTA1 212217Z 13020KT 18/02 A2975 RMK A01 T01750015  RH  034%=      5-min Rain = 0
KTA1 212218Z 12019KT 18/02 A2975 RMK A01 T01750015  RH  034%=      5-min Rain = 0
KTA1 212219Z 13022KT 17/01 A2975 RMK A01 T01740014  RH  034%=      5-min Rain = 0
KTA1 212220Z 14020KT 17/02 A2975 RMK A01 T01740015  RH  034%=      5-min Rain = 0
KTA1 212221Z 14017KT 17/01 A2975 RMK A01 T01730013  RH  034%=      5-min Rain = 0
KTA1 212222Z 14015KT 17/01 A2975 RMK A01 T01730014  RH  034%=      5-min Rain = 0
KTA1 212223Z 14016KT 17/02 A2975 RMK A01 T01740015  RH  034%=      5-min Rain = 0
KTA1 212224Z 13014KT 18/02 A2975 RMK A01 T01750015  RH  034%=      5-min Rain = 0
KTA1 212225Z 14013KT 18/02 A2975 RMK A01 T01770016  RH  034%=      5-min Rain = 0
KTA1 212226Z 13017KT 18/02 A2975 RMK A01 T01780015  RH  033%=      5-min Rain = 0
KTA1 212227Z 14015G20KT 18/01 A2975 RMK A01 T01750014  RH  034%=      5-min Rain = 0
KTA1 212228Z 14015KT 18/02 A2975 RMK A01 T01750016  RH  034%=      5-min Rain = 0
KTA1 212229Z 13014KT 18/02 A2975 RMK A01 T01760016  RH  034%=      5-min Rain = 0
KTA1 212230Z 14012KT 18/02 A2975 RMK A01 T01770016  RH  034%=      5-min Rain = 0
KTA1 212231Z 14014KT 18/02 A2975 RMK A01 T01770015  RH  034%=      5-min Rain = 0
KTA1 212232Z 13018KT 18/02 A2975 RMK A01 T01770016  RH  034%=      5-min Rain = 0
KTA1 212233Z 12017KT 18/02 A2975 RMK A01 T01770017  RH  034%=      5-min Rain = 0
KTA1 212234Z 13019KT 18/02 A2975 RMK A01 T01760016  RH  034%=      5-min Rain = 0
KTA1 212235Z 13017KT 17/01 A2975 RMK A01 T01740014  RH  034%=      5-min Rain = 0
KTA1 212236Z 13015KT 17/01 A2975 RMK A01 T01740014  RH  034%=      5-min Rain = 0
KTA1 212237Z 14018KT 17/02 A2975 RMK A01 T01740015  RH  034%=      5-min Rain = 0
KTA1 212238Z 14017KT 17/02 A2975 RMK A01 T01740016  RH  035%=      5-min Rain = 0
KTA1 212239Z 14019KT 17/02 A2975 RMK A01 T01740018  RH  035%=      5-min Rain = 0
KTA1 212240Z 14017KT 17/02 A2975 RMK A01 T01730018  RH  035%=      5-min Rain = 0
KTA1 212241Z 13016KT 17/02 A2975 RMK A01 T01720018  RH  036%=      5-min Rain = 0
KTA1 212242Z 13016G22KT 17/02 A2976 RMK A01 T01720019  RH  036%=      5-min Rain = 0
KTA1 212243Z 12019KT 17/02 A2976 RMK A01 T01730018  RH  035%=      5-min Rain = 0
KTA1 212244Z 12019KT 17/02 A2976 RMK A01 T01720017  RH  035%=      5-min Rain = 0
KTA1 212245Z 12018KT 17/02 A2976 RMK A01 T01710017  RH  036%=      5-min Rain = 0
KTA1 212246Z 12017KT 17/02 A2976 RMK A01 T01700018  RH  036%=      5-min Rain = 0
KTA1 212247Z 14018KT 17/02 A2976 RMK A01 T01720019  RH  036%=      5-min Rain = 0
KTA1 212248Z 14018KT 17/02 A2976 RMK A01 T01730018  RH  035%=      5-min Rain = 0
KTA1 212249Z 14016KT 17/02 A2976 RMK A01 T01730018  RH  035%=      5-min Rain = 0
KTA1 212250Z 13017KT 17/02 A2976 RMK A01 T01720018  RH  036%=      5-min Rain = 0
KTA1 212251Z 13016KT 17/02 A2976 RMK A01 T01710018  RH  036%=      5-min Rain = 0
KTA1 212252Z 14014KT 17/02 A2976 RMK A01 T01710018  RH  036%=      5-min Rain = 0
KTA1 212253Z 14014KT 17/02 A2976 RMK A01 T01710019  RH  036%=      5-min Rain = 0
KTA1 212254Z 13016KT 17/02 A2976 RMK A01 T01720018  RH  036%=      5-min Rain = 0
KTA1 212255Z 14016KT 17/02 A2976 RMK A01 T01720017  RH  035%=      5-min Rain = 0
KTA1 212256Z 15015KT 17/02 A2976 RMK A01 T01720017  RH  035%=      5-min Rain = 0
KTA1 212257Z 14012KT 17/02 A2976 RMK A01 T01720018  RH  035%=      5-min Rain = 0
KTA1 212258Z 14015KT 17/02 A2976 RMK A01 T01730018  RH  035%=      5-min Rain = 0
KTA1 212259Z 14017KT 17/02 A2976 RMK A01 T01730016  RH  035%=      5-min Rain = 0
KTA1 212300Z 15015KT 17/02 A2976 RMK A01 T01720016  RH  035%=      5-min Rain = 0
KTA1 212301Z 14015KT 17/02 A2976 RMK A01 T01710016  RH  035%=      5-min Rain = 0
KTA1 212302Z 13016KT 17/02 A2976 RMK A01 T01710017  RH  035%=      5-min Rain = 0
KTA1 212303Z 12017KT 17/02 A2976 RMK A01 T01710019  RH  036%=      5-min Rain = 0
KTA1 212304Z 12018KT 17/02 A2976 RMK A01 T01710019  RH  036%=      5-min Rain = 0
KTA1 212305Z 13017KT 17/02 A2976 RMK A01 T01710019  RH  036%=      5-min Rain = 0
KTA1 212306Z 12018KT 17/02 A2976 RMK A01 T01700018  RH  036%=      5-min Rain = 0
KTA1 212307Z 13017KT 17/02 A2976 RMK A01 T01700018  RH  036%=      5-min Rain = 0
KTA1 212308Z 13016KT 17/02 A2976 RMK A01 T01700017  RH  036%=      5-min Rain = 0
KTA1 212309Z 14015KT 17/02 A2976 RMK A01 T01710017  RH  036%=      5-min Rain = 0
KTA1 212310Z 14015KT 17/02 A2976 RMK A01 T01710017  RH  035%=      5-min Rain = 0
KTA1 212311Z 14018KT 17/02 A2976 RMK A01 T01710017  RH  035%=      5-min Rain = 0
KTA1 212312Z 14018KT 17/02 A2976 RMK A01 T01710018  RH  036%=      5-min Rain = 0
KTA1 212313Z 15015KT 17/02 A2976 RMK A01 T01700019  RH  036%=      5-min Rain = 0
KTA1 212314Z 15015KT 17/02 A2976 RMK A01 T01690018  RH  036%=      5-min Rain = 0
KTA1 212315Z 15018KT 17/02 A2976 RMK A01 T01690019  RH  036%=      5-min Rain = 0
KTA1 212316Z 15017KT 17/02 A2976 RMK A01 T01690017  RH  036%=      5-min Rain = 0
KTA1 212317Z 15016KT 17/02 A2976 RMK A01 T01680016  RH  036%=      5-min Rain = 0
KTA1 212318Z 14012KT 17/02 A2976 RMK A01 T01670016  RH  036%=      5-min Rain = 0
KTA1 212319Z 14013KT 17/02 A2976 RMK A01 T01680016  RH  036%=      5-min Rain = 0
KTA1 212320Z 13013G18KT 17/02 A2976 RMK A01 T01690017  RH  036%=      5-min Rain = 0
KTA1 212321Z 14018KT 17/02 A2976 RMK A01 T01690017  RH  036%=      5-min Rain = 0
KTA1 212322Z 14017KT 17/02 A2976 RMK A01 T01690016  RH  036%=      5-min Rain = 0
KTA1 212323Z 14018KT 17/02 A2976 RMK A01 T01680016  RH  036%=      5-min Rain = 0
KTA1 212324Z 14016KT 17/02 A2976 RMK A01 T01670015  RH  036%=      5-min Rain = 0
KTA1 212325Z 14015KT 17/02 A2976 RMK A01 T01680016  RH  036%=      5-min Rain = 0
KTA1 212326Z 13015KT 17/02 A2976 RMK A01 T01670016  RH  036%=      5-min Rain = 0
KTA1 212327Z 14014KT 17/02 A2976 RMK A01 T01680017  RH  036%=      5-min Rain = 0
KTA1 212328Z 15014KT 17/02 A2976 RMK A01 T01670017  RH  036%=      5-min Rain = 0
KTA1 212329Z 14015KT 17/02 A2976 RMK A01 T01680017  RH  036%=      5-min Rain = 0
KTA1 212330Z 14013KT 17/02 A2976 RMK A01 T01680017  RH  036%=      5-min Rain = 0
KTA1 212331Z 14013KT 17/02 A2976 RMK A01 T01680018  RH  036%=      5-min Rain = 0
KTA1 212332Z 14017KT 17/02 A2976 RMK A01 T01680017  RH  036%=      5-min Rain = 0
KTA1 212333Z 14017KT 17/02 A2976 RMK A01 T01670016  RH  036%=      5-min Rain = 0
KTA1 212334Z 14017KT 17/02 A2976 RMK A01 T01660016  RH  036%=      5-min Rain = 0
KTA1 212335Z 14016KT 17/02 A2976 RMK A01 T01650015  RH  036%=      5-min Rain = 0
KTA1 212336Z 14017KT 16/02 A2976 RMK A01 T01640015  RH  037%=      5-min Rain = 0
KTA1 212337Z 14016KT 16/02 A2977 RMK A01 T01640016  RH  037%=      5-min Rain = 0
KTA1 212338Z 14015KT 16/02 A2977 RMK A01 T01630017  RH  037%=      5-min Rain = 0
KTA1 212339Z 14015KT 16/02 A2977 RMK A01 T01630018  RH  037%=      5-min Rain = 0
KTA1 212340Z 13014KT 16/02 A2977 RMK A01 T01630020  RH  038%=      5-min Rain = 0
KTA1 212341Z 13014KT 16/02 A2977 RMK A01 T01630020  RH  038%=      5-min Rain = 0
KTA1 212342Z 14014KT 16/02 A2977 RMK A01 T01640022  RH  038%=      5-min Rain = 0
KTA1 212343Z 13015KT 16/02 A2977 RMK A01 T01640021  RH  038%=      5-min Rain = 0
KTA1 212344Z 13014KT 16/02 A2977 RMK A01 T01630022  RH  039%=      5-min Rain = 0
KTA1 212345Z 13015KT 16/02 A2977 RMK A01 T01620023  RH  039%=      5-min Rain = 0
KTA1 212346Z 13015KT 16/02 A2977 RMK A01 T01620023  RH  039%=      5-min Rain = 0
KTA1 212347Z 13015KT 16/02 A2977 RMK A01 T01620023  RH  039%=      5-min Rain = 0
KTA1 212348Z 13017KT 16/02 A2977 RMK A01 T01610022  RH  039%=      5-min Rain = 0
KTA1 212349Z 13018KT 16/02 A2977 RMK A01 T01590021  RH  039%=      5-min Rain = 0
KTA1 212350Z 13015KT 16/02 A2977 RMK A01 T01590021  RH  040%=      5-min Rain = 0
KTA1 212351Z 13014KT 16/02 A2977 RMK A01 T01580022  RH  040%=      5-min Rain = 0
KTA1 212352Z 12015KT 16/02 A2977 RMK A01 T01580021  RH  040%=      5-min Rain = 0
KTA1 212353Z 12015KT 16/02 A2977 RMK A01 T01580021  RH  040%=      5-min Rain = 0
KTA1 212354Z 12013KT 16/02 A2977 RMK A01 T01570021  RH  040%=      5-min Rain = 0
KTA1 212355Z 12015KT 16/02 A2977 RMK A01 T01570021  RH  040%=      5-min Rain = 0
KTA1 212356Z 13015KT 16/02 A2978 RMK A01 T01570020  RH  040%=      5-min Rain = 0
KTA1 212357Z 13017KT 16/02 A2978 RMK A01 T01560020  RH  040%=      5-min Rain = 0
KTA1 212358Z 13015KT 16/02 A2978 RMK A01 T01550019  RH  040%=      5-min Rain = 0
KTA1 212359Z 12015KT 16/02 A2977 RMK A01 T01550019  RH  040%=      5-min Rain = 0
KTA1 220000Z 12014KT 16/02 A2977 RMK A01 T01550019  RH  040%=      5-min Rain = 0
KTA1 220001Z 12014KT 15/02 A2977 RMK A01 T01540019  RH  040%=      5-min Rain = 0
KTA1 220002Z 12015KT 15/02 A2978 RMK A01 T01540019  RH  040%=      5-min Rain = 0
KTA1 220003Z 12018KT 15/02 A2978 RMK A01 T01530019  RH  040%=      5-min Rain = 0
KTA1 220004Z 13016KT 15/02 A2978 RMK A01 T01530019  RH  040%=      5-min Rain = 0
KTA1 220005Z 13015KT 15/02 A2978 RMK A01 T01530019  RH  040%=      5-min Rain = 0
KTA1 220006Z 13015KT 15/02 A2978 RMK A01 T01520019  RH  040%=      5-min Rain = 0
KTA1 220007Z 13014KT 15/02 A2978 RMK A01 T01520019  RH  041%=      5-min Rain = 0
KTA1 220008Z 13014KT 15/02 A2978 RMK A01 T01520019  RH  041%=      5-min Rain = 0
KTA1 220009Z 13013KT 15/02 A2978 RMK A01 T01510019  RH  041%=      5-min Rain = 0
KTA1 220010Z 13014KT 15/02 A2978 RMK A01 T01510019  RH  041%=      5-min Rain = 0
KTA1 220011Z 13016KT 15/02 A2978 RMK A01 T01500019  RH  041%=      5-min Rain = 0
KTA1 220012Z 13017KT 15/02 A2978 RMK A01 T01500019  RH  041%=      5-min Rain = 0
KTA1 220013Z 13014KT 15/02 A2978 RMK A01 T01500018  RH  041%=      5-min Rain = 0
KTA1 220014Z 13016KT 15/02 A2978 RMK A01 T01490018  RH  041%=      5-min Rain = 0
KTA1 220015Z 13019KT 15/02 A2978 RMK A01 T01490019  RH  041%=      5-min Rain = 0
KTA1 220016Z 13017KT 15/02 A2978 RMK A01 T01480020  RH  042%=      5-min Rain = 0
KTA1 220017Z 13016KT 15/02 A2978 RMK A01 T01480020  RH  042%=      5-min Rain = 0
KTA1 220018Z 13015KT 15/02 A2978 RMK A01 T01470020  RH  042%=      5-min Rain = 0
KTA1 220019Z 13015KT 15/02 A2978 RMK A01 T01460020  RH  042%=      5-min Rain = 0
KTA1 220020Z 12014KT 15/02 A2978 RMK A01 T01460019  RH  042%=      5-min Rain = 0
KTA1 220021Z 12014KT 15/02 A2978 RMK A01 T01450019  RH  043%=      5-min Rain = 0
KTA1 220022Z 12014KT 14/02 A2978 RMK A01 T01440019  RH  043%=      5-min Rain = 0
KTA1 220023Z 12014KT 14/02 A2978 RMK A01 T01430020  RH  043%=      5-min Rain = 0
KTA1 220024Z 12016KT 14/02 A2978 RMK A01 T01430020  RH  043%=      5-min Rain = 0
KTA1 220025Z 12016KT 14/02 A2978 RMK A01 T01420020  RH  044%=      5-min Rain = 0
KTA1 220026Z 12016KT 14/02 A2978 RMK A01 T01410020  RH  044%=      5-min Rain = 0
KTA1 220027Z 12014KT 14/02 A2978 RMK A01 T01410020  RH  044%=      5-min Rain = 0
KTA1 220028Z 12014KT 14/02 A2978 RMK A01 T01400020  RH  044%=      5-min Rain = 0
KTA1 220029Z 12015KT 14/02 A2978 RMK A01 T01400020  RH  044%=      5-min Rain = 0
KTA1 220030Z 12015KT 14/02 A2978 RMK A01 T01390020  RH  044%=      5-min Rain = 0
KTA1 220031Z 12013KT 14/02 A2978 RMK A01 T01390020  RH  044%=      5-min Rain = 0
KTA1 220032Z 12014KT 14/02 A2978 RMK A01 T01380019  RH  044%=      5-min Rain = 0
KTA1 220033Z 12012KT 14/02 A2978 RMK A01 T01380020  RH  045%=      5-min Rain = 0
KTA1 220034Z 12014KT 14/02 A2978 RMK A01 T01370019  RH  045%=      5-min Rain = 0
KTA1 220035Z 12014KT 14/02 A2979 RMK A01 T01360019  RH  045%=      5-min Rain = 0
KTA1 220036Z 12014KT 14/02 A2979 RMK A01 T01360019  RH  045%=      5-min Rain = 0
KTA1 220037Z 12014KT 14/02 A2979 RMK A01 T01350019  RH  045%=      5-min Rain = 0
KTA1 220038Z 12015KT 13/02 A2979 RMK A01 T01340018  RH  045%=      5-min Rain = 0
KTA1 220039Z 12015KT 13/02 A2979 RMK A01 T01340019  RH  045%=      5-min Rain = 0
KTA1 220040Z 12016KT 13/02 A2979 RMK A01 T01340019  RH  045%=      5-min Rain = 0
KTA1 220041Z 12015KT 13/02 A2979 RMK A01 T01340019  RH  046%=      5-min Rain = 0
KTA1 220042Z 12015KT 13/02 A2979 RMK A01 T01330019  RH  046%=      5-min Rain = 0
KTA1 220043Z 12014KT 13/02 A2979 RMK A01 T01330018  RH  046%=      5-min Rain = 0
KTA1 220044Z 12015KT 13/02 A2979 RMK A01 T01320018  RH  046%=      5-min Rain = 0
KTA1 220045Z 12014KT 13/02 A2979 RMK A01 T01320019  RH  046%=      5-min Rain = 0
KTA1 220046Z 12015KT 13/02 A2979 RMK A01 T01310018  RH  046%=      5-min Rain = 0
KTA1 220047Z 12014KT 13/02 A2979 RMK A01 T01310018  RH  046%=      5-min Rain = 0
KTA1 220048Z 12014KT 13/02 A2979 RMK A01 T01310018  RH  046%=      5-min Rain = 0
KTA1 220049Z 12014KT 13/02 A298 RMK A01 T01300018  RH  046%=      5-min Rain = 0
KTA1 220050Z 12013KT 13/02 A298 RMK A01 T01300018  RH  047%=      5-min Rain = 0
KTA1 220051Z 12012KT 13/02 A298 RMK A01 T01290018  RH  047%=      5-min Rain = 0
KTA1 220052Z 12012KT 13/02 A298 RMK A01 T01280017  RH  047%=      5-min Rain = 0
KTA1 220053Z 12012KT 13/02 A298 RMK A01 T01270017  RH  047%=      5-min Rain = 0
KTA1 220054Z 12012KT 13/02 A298 RMK A01 T01260017  RH  047%=      5-min Rain = 0
KTA1 220055Z 12012KT 13/02 A298 RMK A01 T01260017  RH  048%=      5-min Rain = 0
KTA1 220056Z 12012KT 13/02 A298 RMK A01 T01260018  RH  048%=      5-min Rain = 0
KTA1 220057Z 12012KT 13/02 A298 RMK A01 T01250018  RH  048%=      5-min Rain = 0
KTA1 220058Z 12012KT 13/02 A298 RMK A01 T01250018  RH  048%=      5-min Rain = 0
KTA1 220059Z 12013KT 13/02 A298 RMK A01 T01250018  RH  048%=      5-min Rain = 0
KTA1 220100Z 12014KT 12/02 A298 RMK A01 T01240018  RH  048%=      5-min Rain = 0
KTA1 220101Z 12013KT 12/02 A298 RMK A01 T01240018  RH  048%=      5-min Rain = 0
KTA1 220102Z 12013KT 12/02 A298 RMK A01 T01240018  RH  048%=      5-min Rain = 0
KTA1 220103Z 12013KT 12/02 A298 RMK A01 T01240018  RH  048%=      5-min Rain = 0
KTA1 220104Z 11013KT 12/02 A298 RMK A01 T01230018  RH  048%=      5-min Rain = 0
KTA1 220105Z 11013KT 12/02 A298 RMK A01 T01230018  RH  048%=      5-min Rain = 0
KTA1 220106Z 11013KT 12/02 A298 RMK A01 T01230017  RH  048%=      5-min Rain = 0
KTA1 220107Z 11013KT 12/02 A298 RMK A01 T01240018  RH  048%=      5-min Rain = 0
KTA1 220108Z 11013KT 12/02 A298 RMK A01 T01230018  RH  049%=      5-min Rain = 0
KTA1 220109Z 11013KT 12/02 A298 RMK A01 T01220017  RH  049%=      5-min Rain = 0
KTA1 220110Z 11012KT 12/02 A2981 RMK A01 T01210017  RH  049%=      5-min Rain = 0
KTA1 220111Z 11012KT 12/02 A2981 RMK A01 T01200016  RH  049%=      5-min Rain = 0
KTA1 220112Z 11012KT 12/02 A2981 RMK A01 T01200016  RH  049%=      5-min Rain = 0
KTA1 220113Z 11012KT 12/02 A2981 RMK A01 T01190016  RH  049%=      5-min Rain = 0
KTA1 220114Z 11012KT 12/02 A2981 RMK A01 T01190016  RH  049%=      5-min Rain = 0
KTA1 220115Z 12012KT 12/02 A2981 RMK A01 T01190016  RH  049%=      5-min Rain = 0
KTA1 220116Z 11011KT 12/02 A2981 RMK A01 T01190016  RH  050%=      5-min Rain = 0
KTA1 220117Z 12012KT 12/02 A2981 RMK A01 T01180016  RH  050%=      5-min Rain = 0
KTA1 220118Z 11011KT 12/02 A2981 RMK A01 T01170016  RH  050%=      5-min Rain = 0
KTA1 220119Z 11011KT 12/02 A2981 RMK A01 T01170016  RH  050%=      5-min Rain = 0
KTA1 220120Z 12012KT 12/02 A2981 RMK A01 T01170016  RH  050%=      5-min Rain = 0
KTA1 220121Z 12011KT 12/02 A2981 RMK A01 T01170016  RH  050%=      5-min Rain = 0
KTA1 220122Z 12012KT 12/02 A2981 RMK A01 T01160016  RH  050%=      5-min Rain = 0
KTA1 220123Z 12012KT 12/02 A2981 RMK A01 T01170016  RH  050%=      5-min Rain = 0
KTA1 220124Z 12012KT 12/02 A2981 RMK A01 T01170017  RH  050%=      5-min Rain = 0
KTA1 220125Z 12012KT 12/02 A2981 RMK A01 T01160016  RH  050%=      5-min Rain = 0
KTA1 220126Z 12011KT 12/02 A2981 RMK A01 T01160016  RH  050%=      5-min Rain = 0
KTA1 220127Z 12011KT 12/02 A2981 RMK A01 T01160016  RH  050%=      5-min Rain = 0
KTA1 220128Z 12011KT 12/02 A2981 RMK A01 T01150017  RH  051%=      5-min Rain = 0
KTA1 220129Z 13012KT 12/02 A2981 RMK A01 T01150016  RH  051%=      5-min Rain = 0
KTA1 220130Z 12012KT 11/02 A2981 RMK A01 T01140017  RH  051%=      5-min Rain = 0
KTA1 220131Z 12013KT 11/02 A2981 RMK A01 T01140017  RH  051%=      5-min Rain = 0
KTA1 220132Z 12013KT 11/02 A2981 RMK A01 T01140017  RH  051%=      5-min Rain = 0
KTA1 220133Z 12014KT 11/02 A2981 RMK A01 T01140017  RH  051%=      5-min Rain = 0
KTA1 220134Z 12013KT 12/02 A2981 RMK A01 T01150017  RH  051%=      5-min Rain = 0
KTA1 220135Z 13013KT 11/02 A2981 RMK A01 T01140017  RH  051%=      5-min Rain = 0
KTA1 220136Z 12013KT 11/02 A2981 RMK A01 T01140016  RH  051%=      5-min Rain = 0
KTA1 220137Z 12012KT 11/02 A2981 RMK A01 T01130016  RH  051%=      5-min Rain = 0
KTA1 220138Z 12012KT 11/02 A2981 RMK A01 T01120016  RH  052%=      5-min Rain = 0
KTA1 220139Z 12012KT 11/02 A2981 RMK A01 T01120016  RH  052%=      5-min Rain = 0
KTA1 220140Z 12012KT 11/02 A2981 RMK A01 T01110016  RH  052%=      5-min Rain = 0
KTA1 220141Z 12012KT 11/02 A2981 RMK A01 T01110016  RH  052%=      5-min Rain = 0
KTA1 220142Z 12011KT 11/02 A2982 RMK A01 T01110016  RH  052%=      5-min Rain = 0
KTA1 220143Z 12012KT 11/02 A2982 RMK A01 T01110016  RH  052%=      5-min Rain = 0
KTA1 220144Z 12011KT 11/02 A2982 RMK A01 T01100015  RH  052%=      5-min Rain = 0
KTA1 220145Z 12011KT 11/02 A2982 RMK A01 T01090015  RH  052%=      5-min Rain = 0
KTA1 220146Z 12012KT 11/02 A2982 RMK A01 T01090016  RH  052%=      5-min Rain = 0
KTA1 220147Z 12010KT 11/02 A2982 RMK A01 T01090016  RH  052%=      5-min Rain = 0
KTA1 220148Z 12011KT 11/02 A2982 RMK A01 T01090015  RH  052%=      5-min Rain = 0
KTA1 220149Z 11011KT 11/02 A2982 RMK A01 T01090015  RH  053%=      5-min Rain = 0
KTA1 220150Z 11011KT 11/02 A2982 RMK A01 T01090015  RH  052%=      5-min Rain = 0
KTA1 220151Z 12011KT 11/02 A2982 RMK A01 T01090015  RH  053%=      5-min Rain = 0
KTA1 220152Z 11011KT 11/02 A2982 RMK A01 T01090015  RH  053%=      5-min Rain = 0
KTA1 220153Z 11011KT 11/02 A2982 RMK A01 T01090015  RH  052%=      5-min Rain = 0
KTA1 220154Z 11011KT 11/02 A2982 RMK A01 T01080015  RH  053%=      5-min Rain = 0
KTA1 220155Z 11011KT 11/02 A2982 RMK A01 T01080016  RH  053%=      5-min Rain = 0
KTA1 220156Z 11010KT 11/02 A2982 RMK A01 T01080015  RH  053%=      5-min Rain = 0
KTA1 220157Z 11011KT 11/02 A2982 RMK A01 T01080015  RH  053%=      5-min Rain = 0
KTA1 220158Z 11010KT 11/02 A2982 RMK A01 T01070015  RH  053%=      5-min Rain = 0
KTA1 220159Z 11010KT 11/02 A2982 RMK A01 T01060015  RH  053%=      5-min Rain = 0
KTA1 220200Z 11009KT 11/01 A2982 RMK A01 T01060014  RH  053%=      5-min Rain = 0
KTA1 220201Z 11009KT 11/01 A2982 RMK A01 T01050013  RH  053%=      5-min Rain = 0
KTA1 220202Z 11009KT 10/01 A2982 RMK A01 T01040013  RH  053%=      5-min Rain = 0
KTA1 220203Z 11010KT 10/01 A2982 RMK A01 T01040013  RH  053%=      5-min Rain = 0
KTA1 220204Z 11009KT 10/01 A2982 RMK A01 T01030012  RH  053%=      5-min Rain = 0
KTA1 220205Z 11009KT 10/01 A2982 RMK A01 T01020012  RH  054%=      5-min Rain = 0
KTA1 220206Z 11009KT 10/01 A2982 RMK A01 T01010012  RH  054%=      5-min Rain = 0
KTA1 220207Z 11012KT 10/01 A2982 RMK A01 T01010012  RH  054%=      5-min Rain = 0
KTA1 220208Z 12012KT 10/01 A2982 RMK A01 T01010013  RH  054%=      5-min Rain = 0
KTA1 220209Z 12012KT 10/01 A2982 RMK A01 T01020013  RH  054%=      5-min Rain = 0
KTA1 220210Z 12012KT 10/01 A2982 RMK A01 T01030013  RH  054%=      5-min Rain = 0
KTA1 220211Z 12013KT 10/01 A2982 RMK A01 T01030013  RH  054%=      5-min Rain = 0
KTA1 220212Z 12012KT 10/01 A2982 RMK A01 T01030014  RH  054%=      5-min Rain = 0
KTA1 220213Z 12012KT 10/01 A2982 RMK A01 T01030014  RH  054%=      5-min Rain = 0
KTA1 220214Z 11012KT 10/01 A2982 RMK A01 T01030013  RH  054%=      5-min Rain = 0
KTA1 220215Z 11012KT 10/01 A2982 RMK A01 T01030013  RH  054%=      5-min Rain = 0
KTA1 220216Z 11011KT 10/01 A2982 RMK A01 T01020013  RH  054%=      5-min Rain = 0
KTA1 220217Z 11012KT 10/01 A2982 RMK A01 T01010013  RH  054%=      5-min Rain = 0
KTA1 220218Z 11012KT 10/01 A2982 RMK A01 T01010013  RH  054%=      5-min Rain = 0
KTA1 220219Z 11012KT 10/01 A2982 RMK A01 T01010013  RH  054%=      5-min Rain = 0
KTA1 220220Z 11011KT 10/01 A2982 RMK A01 T01010013  RH  054%=      5-min Rain = 0
KTA1 220221Z 11011KT 10/01 A2982 RMK A01 T01000012  RH  055%=      5-min Rain = 0
KTA1 220222Z 11010KT 10/01 A2982 RMK A01 T00990012  RH  055%=      5-min Rain = 0
KTA1 220223Z 10010KT 10/01 A2982 RMK A01 T00980011  RH  055%=      5-min Rain = 0
KTA1 220224Z 10011KT 10/01 A2982 RMK A01 T00970012  RH  055%=      5-min Rain = 0
KTA1 220225Z 10010KT 10/01 A2982 RMK A01 T00960011  RH  055%=      5-min Rain = 0
KTA1 220226Z 10010KT 10/01 A2982 RMK A01 T00960011  RH  056%=      5-min Rain = 0
KTA1 220227Z 10010KT 10/01 A2982 RMK A01 T00960012  RH  056%=      5-min Rain = 0
KTA1 220228Z 10010KT 10/01 A2982 RMK A01 T00950011  RH  056%=      5-min Rain = 0
KTA1 220229Z 10010KT 10/01 A2983 RMK A01 T00950011  RH  056%=      5-min Rain = 0
KTA1 220230Z 10009KT 10/01 A2983 RMK A01 T00950011  RH  056%=      5-min Rain = 0
KTA1 220231Z 09009KT 09/01 A2983 RMK A01 T00940011  RH  056%=      5-min Rain = 0
KTA1 220232Z 09010KT 09/01 A2983 RMK A01 T00930011  RH  056%=      5-min Rain = 0
KTA1 220233Z 09009KT 09/01 A2983 RMK A01 T00930011  RH  057%=      5-min Rain = 0
KTA1 220234Z 09008KT 09/01 A2983 RMK A01 T00920010  RH  057%=      5-min Rain = 0
KTA1 220235Z 09009KT 09/01 A2983 RMK A01 T00910010  RH  057%=      5-min Rain = 0
KTA1 220236Z 09010KT 09/01 A2983 RMK A01 T00910009  RH  057%=      5-min Rain = 0
KTA1 220237Z 09010KT 09/01 A2983 RMK A01 T00910009  RH  057%=      5-min Rain = 0
KTA1 220238Z 09010KT 09/01 A2983 RMK A01 T00900008  RH  056%=      5-min Rain = 0
KTA1 220239Z 09010KT 09/01 A2983 RMK A01 T00900008  RH  056%=      5-min Rain = 0
KTA1 220240Z 09010KT 09/01 A2983 RMK A01 T00900008  RH  056%=      5-min Rain = 0
KTA1 220241Z 09010KT 09/01 A2983 RMK A01 T00890007  RH  057%=      5-min Rain = 0
KTA1 220242Z 09010KT 09/01 A2983 RMK A01 T00880007  RH  057%=      5-min Rain = 0
KTA1 220243Z 09009KT 09/01 A2983 RMK A01 T00880006  RH  057%=      5-min Rain = 0
KTA1 220244Z 10010KT 09/01 A2983 RMK A01 T00880007  RH  057%=      5-min Rain = 0
KTA1 220245Z 10009KT 09/01 A2983 RMK A01 T00880006  RH  057%=      5-min Rain = 0
KTA1 220246Z 10009KT 09/01 A2983 RMK A01 T00870006  RH  057%=      5-min Rain = 0
KTA1 220247Z 10009KT 09/01 A2984 RMK A01 T00870005  RH  056%=      5-min Rain = 0
KTA1 220248Z 10008KT 09/01 A2984 RMK A01 T00860005  RH  057%=      5-min Rain = 0
KTA1 220249Z 10008KT 09/01 A2984 RMK A01 T00860005  RH  057%=      5-min Rain = 0
KTA1 220250Z 10008KT 09/00 A2984 RMK A01 T00860004  RH  057%=      5-min Rain = 0
KTA1 220251Z 10008KT 09/01 A2984 RMK A01 T00850005  RH  057%=      5-min Rain = 0
KTA1 220252Z 10008KT 08/00 A2984 RMK A01 T00840003  RH  057%=      5-min Rain = 0
KTA1 220253Z 10008KT 08/00 A2984 RMK A01 T00830003  RH  057%=      5-min Rain = 0
KTA1 220254Z 10008KT 08/00 A2984 RMK A01 T00830003  RH  057%=      5-min Rain = 0
KTA1 220255Z 10008KT 08/00 A2984 RMK A01 T00830003  RH  057%=      5-min Rain = 0
KTA1 220256Z 10008KT 08/00 A2984 RMK A01 T00830003  RH  057%=      5-min Rain = 0
KTA1 220257Z 10009KT 08/00 A2984 RMK A01 T00820003  RH  057%=      5-min Rain = 0
KTA1 220258Z 10009KT 08/00 A2984 RMK A01 T00820002  RH  057%=      5-min Rain = 0
KTA1 220259Z 10009KT 08/00 A2984 RMK A01 T00820002  RH  057%=      5-min Rain = 0
KTA1 220300Z 10008KT 08/00 A2984 RMK A01 T00810002  RH  057%=      5-min Rain = 0
KTA1 220301Z 10008KT 08/00 A2984 RMK A01 T00810001  RH  057%=      5-min Rain = 0
KTA1 220302Z 10008KT 08/00 A2984 RMK A01 T00790001  RH  058%=      5-min Rain = 0
KTA1 220303Z 10008KT 08/00 A2984 RMK A01 T00780000  RH  058%=      5-min Rain = 0
KTA1 220304Z 10008KT 08/00 A2984 RMK A01 T00780001  RH  058%=      5-min Rain = 0
KTA1 220305Z 10009KT 08/00 A2984 RMK A01 T00770001  RH  058%=      5-min Rain = 0
KTA1 220306Z 10009KT 08/00 A2984 RMK A01 T00780001  RH  058%=      5-min Rain = 0
KTA1 220307Z 10008KT 08/00 A2984 RMK A01 T00770001  RH  058%=      5-min Rain = 0
KTA1 220308Z 10008KT 08/00 A2984 RMK A01 T00770000  RH  058%=      5-min Rain = 0
KTA1 220309Z 10008KT 08/M00 A2984 RMK A01 T00761001  RH  058%=      5-min Rain = 0
KTA1 220310Z 10009KT 08/00 A2984 RMK A01 T007500-0  RH  059%=      5-min Rain = 0
KTA1 220311Z 10009KT 07/M00 A2984 RMK A01 T00741001  RH  059%=      5-min Rain = 0
KTA1 220312Z 10009KT 07/M00 A2984 RMK A01 T00741001  RH  059%=      5-min Rain = 0
KTA1 220313Z 10009KT 07/M00 A2984 RMK A01 T00741001  RH  059%=      5-min Rain = 0
KTA1 220314Z 09009KT 07/M00 A2984 RMK A01 T00741001  RH  059%=      5-min Rain = 0
KTA1 220315Z 09010KT 07/M00 A2984 RMK A01 T00731002  RH  059%=      5-min Rain = 0
KTA1 220316Z 09010KT 07/M00 A2984 RMK A01 T00731002  RH  059%=      5-min Rain = 0
KTA1 220317Z 09010KT 07/M00 A2984 RMK A01 T00721003  RH  059%=      5-min Rain = 0
KTA1 220318Z 09010KT 07/M00 A2984 RMK A01 T00721003  RH  059%=      5-min Rain = 0
KTA1 220319Z 09010KT 07/M00 A2984 RMK A01 T00711003  RH  059%=      5-min Rain = 0
KTA1 220320Z 09010KT 07/M00 A2984 RMK A01 T00711003  RH  059%=      5-min Rain = 0
KTA1 220321Z 09010KT 07/M00 A2984 RMK A01 T00711003  RH  059%=      5-min Rain = 0
KTA1 220322Z 09010KT 07/M00 A2984 RMK A01 T00711004  RH  059%=      5-min Rain = 0
KTA1 220323Z 09010KT 07/M00 A2984 RMK A01 T00711004  RH  059%=      5-min Rain = 0
KTA1 220324Z 09010KT 07/M01 A2984 RMK A01 T00711005  RH  059%=      5-min Rain = 0
KTA1 220325Z 10010KT 07/M01 A2984 RMK A01 T00711005  RH  058%=      5-min Rain = 0
KTA1 220326Z 09010KT 07/M01 A2984 RMK A01 T00711005  RH  058%=      5-min Rain = 0
KTA1 220327Z 09011KT 07/M01 A2984 RMK A01 T00711006  RH  058%=      5-min Rain = 0
KTA1 220328Z 09010KT 07/M01 A2984 RMK A01 T00711006  RH  058%=      5-min Rain = 0
KTA1 220329Z 10009KT 07/M01 A2984 RMK A01 T00711006  RH  058%=      5-min Rain = 0
KTA1 220330Z 10010KT 07/M01 A2985 RMK A01 T00701007  RH  058%=      5-min Rain = 0
KTA1 220331Z 09009KT 07/M01 A2985 RMK A01 T00701007  RH  058%=      5-min Rain = 0
KTA1 220332Z 09010KT 07/M01 A2985 RMK A01 T00701007  RH  058%=      5-min Rain = 0
KTA1 220333Z 10010KT 07/M01 A2985 RMK A01 T00691008  RH  058%=      5-min Rain = 0
KTA1 220334Z 09009KT 07/M01 A2985 RMK A01 T00691008  RH  058%=      5-min Rain = 0
KTA1 220335Z 09010KT 07/M01 A2985 RMK A01 T00691009  RH  058%=      5-min Rain = 0
KTA1 220336Z 09010KT 07/M01 A2985 RMK A01 T00691009  RH  058%=      5-min Rain = 0
KTA1 220337Z 09010KT 07/M01 A2985 RMK A01 T00691010  RH  057%=      5-min Rain = 0
KTA1 220338Z 09010KT 07/M01 A2985 RMK A01 T00691010  RH  057%=      5-min Rain = 0
KTA1 220339Z 09010KT 07/M01 A2985 RMK A01 T00691010  RH  057%=      5-min Rain = 0
KTA1 220340Z 09010KT 07/M01 A2985 RMK A01 T00681011  RH  057%=      5-min Rain = 0
KTA1 220341Z 09010KT 07/M01 A2985 RMK A01 T00671011  RH  057%=      5-min Rain = 0
KTA1 220342Z 09011KT 07/M01 A2985 RMK A01 T00661012  RH  057%=      5-min Rain = 0
KTA1 220343Z 09011KT 07/M01 A2985 RMK A01 T00661012  RH  057%=      5-min Rain = 0
KTA1 220344Z 09011KT 07/M01 A2985 RMK A01 T00661012  RH  057%=      5-min Rain = 0
KTA1 220345Z 09011KT 07/M01 A2985 RMK A01 T00661013  RH  057%=      5-min Rain = 0
KTA1 220346Z 09010KT 07/M01 A2985 RMK A01 T00651014  RH  057%=      5-min Rain = 0
KTA1 220347Z 09011KT 07/M01 A2985 RMK A01 T00651014  RH  057%=      5-min Rain = 0
KTA1 220348Z 09010KT 07/M02 A2985 RMK A01 T00651015  RH  057%=      5-min Rain = 0
KTA1 220349Z 09010KT 06/M02 A2985 RMK A01 T00641015  RH  057%=      5-min Rain = 0
KTA1 220350Z 09011KT 06/M02 A2985 RMK A01 T00641016  RH  057%=      5-min Rain = 0
KTA1 220351Z 10011KT 06/M02 A2985 RMK A01 T00631016  RH  057%=      5-min Rain = 0
KTA1 220352Z 10011KT 06/M02 A2985 RMK A01 T00631017  RH  057%=      5-min Rain = 0
KTA1 220353Z 10011KT 06/M02 A2985 RMK A01 T00631017  RH  056%=      5-min Rain = 0
KTA1 220354Z 10011KT 06/M02 A2985 RMK A01 T00631017  RH  057%=      5-min Rain = 0
KTA1 220355Z 10010KT 06/M02 A2985 RMK A01 T00611018  RH  057%=      5-min Rain = 0
KTA1 220356Z 10011KT 06/M02 A2985 RMK A01 T00611018  RH  057%=      5-min Rain = 0
KTA1 220357Z 11010KT 06/M02 A2986 RMK A01 T00611018  RH  057%=      5-min Rain = 0
KTA1 220358Z 11010KT 06/M02 A2986 RMK A01 T00611018  RH  057%=      5-min Rain = 0
KTA1 220359Z 10011KT 06/M02 A2985 RMK A01 T00611018  RH  057%=      5-min Rain = 0
KTA1 220400Z 10011KT 06/M02 A2985 RMK A01 T00611018  RH  057%=      5-min Rain = 0
KTA1 220401Z 10011KT 06/M02 A2985 RMK A01 T00611019  RH  057%=      5-min Rain = 0
KTA1 220402Z 10011KT 06/M02 A2985 RMK A01 T00611019  RH  057%=      5-min Rain = 0
KTA1 220403Z 10011KT 06/M02 A2985 RMK A01 T00601019  RH  057%=      5-min Rain = 0
KTA1 220404Z 10011KT 06/M02 A2985 RMK A01 T00601019  RH  057%=      5-min Rain = 0
KTA1 220405Z 10010KT 06/M02 A2985 RMK A01 T00601020  RH  057%=      5-min Rain = 0
KTA1 220406Z 10010KT 06/M02 A2985 RMK A01 T00601019  RH  057%=      5-min Rain = 0
KTA1 220407Z 11010KT 06/M02 A2985 RMK A01 T00601019  RH  057%=      5-min Rain = 0
KTA1 220408Z 10010KT 06/M02 A2985 RMK A01 T00591020  RH  057%=      5-min Rain = 0
KTA1 220409Z 10010KT 06/M02 A2985 RMK A01 T00591020  RH  057%=      5-min Rain = 0
KTA1 220410Z 10010KT 06/M02 A2985 RMK A01 T00581020  RH  057%=      5-min Rain = 0
KTA1 220411Z 10010KT 06/M02 A2985 RMK A01 T00581020  RH  057%=      5-min Rain = 0
KTA1 220412Z 10010KT 06/M02 A2985 RMK A01 T00581019  RH  057%=      5-min Rain = 0
KTA1 220413Z 10010KT 06/M02 A2985 RMK A01 T00581019  RH  057%=      5-min Rain = 0
KTA1 220414Z 10010KT 06/M02 A2985 RMK A01 T00581019  RH  057%=      5-min Rain = 0
KTA1 220415Z 10010KT 06/M02 A2985 RMK A01 T00581020  RH  057%=      5-min Rain = 0
KTA1 220416Z 09010KT 06/M02 A2985 RMK A01 T00581020  RH  057%=      5-min Rain = 0
KTA1 220417Z 09010KT 06/M02 A2985 RMK A01 T00591020  RH  057%=      5-min Rain = 0
KTA1 220418Z 09011KT 06/M02 A2985 RMK A01 T00591019  RH  057%=      5-min Rain = 0
KTA1 220419Z 09011KT 06/M02 A2985 RMK A01 T00581020  RH  057%=      5-min Rain = 0
KTA1 220420Z 09011KT 06/M02 A2985 RMK A01 T00581019  RH  057%=      5-min Rain = 0
KTA1 220421Z 09010KT 06/M02 A2985 RMK A01 T00581019  RH  057%=      5-min Rain = 0
KTA1 220422Z 09010KT 06/M02 A2985 RMK A01 T00581020  RH  058%=      5-min Rain = 0
KTA1 220423Z 09010KT 06/M02 A2985 RMK A01 T00571019  RH  058%=      5-min Rain = 0
KTA1 220424Z 09010KT 06/M02 A2985 RMK A01 T00571019  RH  058%=      5-min Rain = 0
KTA1 220425Z 09010KT 06/M02 A2985 RMK A01 T00571019  RH  058%=      5-min Rain = 0
KTA1 220426Z 09010KT 06/M02 A2985 RMK A01 T00571019  RH  058%=      5-min Rain = 0
KTA1 220427Z 09010KT 06/M02 A2985 RMK A01 T00571019  RH  058%=      5-min Rain = 0
KTA1 220428Z 10010KT 06/M02 A2985 RMK A01 T00571019  RH  058%=      5-min Rain = 0
KTA1 220429Z 10010KT 06/M02 A2985 RMK A01 T00561019  RH  058%=      5-min Rain = 0
KTA1 220430Z 10010KT 06/M02 A2985 RMK A01 T00561019  RH  059%=      5-min Rain = 0
KTA1 220431Z 10010KT 06/M02 A2985 RMK A01 T00551019  RH  059%=      5-min Rain = 0
KTA1 220432Z 10010KT 05/M02 A2985 RMK A01 T00541020  RH  059%=      5-min Rain = 0
KTA1 220433Z 10010KT 05/M02 A2985 RMK A01 T00541020  RH  059%=      5-min Rain = 0
KTA1 220434Z 10010KT 05/M02 A2985 RMK A01 T00531020  RH  059%=      5-min Rain = 0
KTA1 220435Z 10010KT 05/M02 A2985 RMK A01 T00531020  RH  060%=      5-min Rain = 0
KTA1 220436Z 10010KT 05/M02 A2985 RMK A01 T00531019  RH  060%=      5-min Rain = 0
KTA1 220437Z 10010KT 05/M02 A2985 RMK A01 T00531019  RH  060%=      5-min Rain = 0
KTA1 220438Z 10010KT 05/M02 A2985 RMK A01 T00521019  RH  060%=      5-min Rain = 0
KTA1 220439Z 10011KT 05/M02 A2985 RMK A01 T00521019  RH  060%=      5-min Rain = 0
KTA1 220440Z 10011KT 05/M02 A2985 RMK A01 T00521018  RH  060%=      5-min Rain = 0
KTA1 220441Z 11011KT 05/M02 A2985 RMK A01 T00531018  RH  060%=      5-min Rain = 0
KTA1 220442Z 11012KT 05/M02 A2985 RMK A01 T00531017  RH  060%=      5-min Rain = 0
KTA1 220443Z 10011KT 06/M02 A2985 RMK A01 T00551016  RH  060%=      5-min Rain = 0
KTA1 220444Z 10012KT 06/M02 A2985 RMK A01 T00551016  RH  060%=      5-min Rain = 0
KTA1 220445Z 10011KT 06/M02 A2985 RMK A01 T00551016  RH  060%=      5-min Rain = 0
KTA1 220446Z 10011KT 06/M02 A2985 RMK A01 T00551016  RH  060%=      5-min Rain = 0
KTA1 220447Z 10011KT 05/M02 A2985 RMK A01 T00541017  RH  060%=      5-min Rain = 0
KTA1 220448Z 10011KT 05/M02 A2985 RMK A01 T00531016  RH  061%=      5-min Rain = 0
KTA1 220449Z 10012KT 05/M02 A2985 RMK A01 T00531016  RH  061%=      5-min Rain = 0
KTA1 220450Z 09011KT 05/M02 A2985 RMK A01 T00531015  RH  061%=      5-min Rain = 0
KTA1 220451Z 09011KT 05/M02 A2985 RMK A01 T00531015  RH  061%=      5-min Rain = 0
KTA1 220452Z 09011KT 05/M02 A2985 RMK A01 T00531015  RH  061%=      5-min Rain = 0
KTA1 220453Z 09011KT 05/M02 A2985 RMK A01 T00531015  RH  062%=      5-min Rain = 0
KTA1 220454Z 09011KT 05/M01 A2985 RMK A01 T00531014  RH  062%=      5-min Rain = 0
KTA1 220455Z 09011KT 05/M01 A2985 RMK A01 T00531014  RH  062%=      5-min Rain = 0
KTA1 220456Z 09011KT 05/M01 A2985 RMK A01 T00531014  RH  062%=      5-min Rain = 0
KTA1 220457Z 09010KT 05/M01 A2985 RMK A01 T00531013  RH  062%=      5-min Rain = 0
KTA1 220458Z 09010KT 05/M01 A2985 RMK A01 T00531013  RH  063%=      5-min Rain = 0
KTA1 220459Z 09011KT 05/M01 A2985 RMK A01 T00531012  RH  063%=      5-min Rain = 0
KTA1 220500Z 09011KT 05/M01 A2985 RMK A01 T00531012  RH  063%=      5-min Rain = 0
KTA1 220501Z 09010KT 05/M01 A2985 RMK A01 T00531012  RH  063%=      5-min Rain = 0
KTA1 220502Z 09010KT 05/M01 A2985 RMK A01 T00531012  RH  063%=      5-min Rain = 0
KTA1 220503Z 09011KT 05/M01 A2985 RMK A01 T00531012  RH  063%=      5-min Rain = 0
KTA1 220504Z 09010KT 05/M01 A2985 RMK A01 T00521012  RH  064%=      5-min Rain = 0
KTA1 220505Z 09010KT 05/M01 A2985 RMK A01 T00521011  RH  064%=      5-min Rain = 0
KTA1 220506Z 09011KT 05/M01 A2985 RMK A01 T00521011  RH  064%=      5-min Rain = 0
KTA1 220507Z 09010KT 05/M01 A2985 RMK A01 T00511011  RH  064%=      5-min Rain = 0
KTA1 220508Z 09010KT 05/M01 A2985 RMK A01 T00511010  RH  064%=      5-min Rain = 0
KTA1 220509Z 09009KT 05/M01 A2985 RMK A01 T00521010  RH  064%=      5-min Rain = 0
KTA1 220510Z 09010KT 05/M01 A2985 RMK A01 T00511010  RH  065%=      5-min Rain = 0
KTA1 220511Z 09011KT 05/M01 A2985 RMK A01 T00511009  RH  065%=      5-min Rain = 0
KTA1 220512Z 09010KT 05/M01 A2985 RMK A01 T00511009  RH  065%=      5-min Rain = 0
KTA1 220513Z 09011KT 05/M01 A2985 RMK A01 T00511009  RH  065%=      5-min Rain = 0
KTA1 220514Z 09010KT 05/M01 A2985 RMK A01 T00511009  RH  065%=      5-min Rain = 0
KTA1 220515Z 09010KT 05/M01 A2985 RMK A01 T00511008  RH  066%=      5-min Rain = 0
KTA1 220516Z 09009KT 05/M01 A2985 RMK A01 T00511008  RH  066%=      5-min Rain = 0
KTA1 220517Z 09010KT 05/M01 A2985 RMK A01 T00501009  RH  066%=      5-min Rain = 0
KTA1 220518Z 09010KT 05/M01 A2985 RMK A01 T00501007  RH  067%=      5-min Rain = 0
KTA1 220519Z 09010KT 05/M01 A2985 RMK A01 T00491007  RH  067%=      5-min Rain = 0
KTA1 220520Z 09010KT 05/M01 A2985 RMK A01 T00501007  RH  067%=      5-min Rain = 0
KTA1 220521Z 09010KT 05/M01 A2985 RMK A01 T00491007  RH  067%=      5-min Rain = 0
KTA1 220522Z 09011KT 05/M01 A2985 RMK A01 T00491006  RH  067%=      5-min Rain = 0
KTA1 220523Z 09012KT 05/M01 A2985 RMK A01 T00491006  RH  068%=      5-min Rain = 0
KTA1 220524Z 09012KT 05/M01 A2985 RMK A01 T00491005  RH  068%=      5-min Rain = 0
KTA1 220525Z 09012KT 05/M01 A2985 RMK A01 T00501005  RH  068%=      5-min Rain = 0
KTA1 220526Z 09011KT 05/M00 A2985 RMK A01 T00501004  RH  068%=      5-min Rain = 0
KTA1 220527Z 09012KT 05/M00 A2985 RMK A01 T00491004  RH  068%=      5-min Rain = 0
KTA1 220528Z 09011KT 05/M00 A2985 RMK A01 T00491003  RH  069%=      5-min Rain = 0
KTA1 220529Z 09011KT 05/M00 A2985 RMK A01 T00491002  RH  069%=      5-min Rain = 0
KTA1 220530Z 09011KT 05/M00 A2985 RMK A01 T00501002  RH  069%=      5-min Rain = 0
KTA1 220531Z 09011KT 05/M00 A2985 RMK A01 T00501001  RH  070%=      5-min Rain = 0
KTA1 220532Z 09011KT 05/M00 A2985 RMK A01 T00501001  RH  070%=      5-min Rain = 0
KTA1 220533Z 09010KT 05/M00 A2985 RMK A01 T00491001  RH  070%=      5-min Rain = 0
KTA1 220534Z 09011KT 05/M00 A2985 RMK A01 T00491001  RH  070%=      5-min Rain = 0
KTA1 220535Z 09011KT 05/00 A2985 RMK A01 T004900-0  RH  071%=      5-min Rain = 0
KTA1 220536Z 09010KT 05/00 A2985 RMK A01 T00490000  RH  071%=      5-min Rain = 0
KTA1 220537Z 08010KT 05/M00 A2985 RMK A01 T00481001  RH  071%=      5-min Rain = 0
KTA1 220538Z 09010KT 05/M00 A2985 RMK A01 T00471001  RH  071%=      5-min Rain = 0
KTA1 220539Z 09011KT 05/M00 A2985 RMK A01 T00461002  RH  071%=      5-min Rain = 0
KTA1 220540Z 09010KT 05/M00 A2985 RMK A01 T00461001  RH  071%=      5-min Rain = 0
KTA1 220541Z 09011KT 05/M00 A2985 RMK A01 T00461001  RH  072%=      5-min Rain = 0
KTA1 220542Z 09011KT 05/M00 A2985 RMK A01 T00451001  RH  072%=      5-min Rain = 0
KTA1 220543Z 09011KT 05/M00 A2985 RMK A01 T00451001  RH  072%=      5-min Rain = 0
KTA1 220544Z 09010KT 05/M00 A2985 RMK A01 T00451001  RH  072%=      5-min Rain = 0
KTA1 220545Z 09010KT 04/M00 A2985 RMK A01 T00441001  RH  072%=      5-min Rain = 0
KTA1 220546Z 09010KT 05/M00 A2985 RMK A01 T00451001  RH  072%=      5-min Rain = 0
KTA1 220547Z 09011KT 04/M00 A2985 RMK A01 T00441001  RH  073%=      5-min Rain = 0
KTA1 220548Z 09012KT 04/00 A2985 RMK A01 T00440000  RH  073%=      5-min Rain = 0
KTA1 220549Z 09011KT 04/00 A2985 RMK A01 T00440000  RH  073%=      5-min Rain = 0
KTA1 220550Z 09010KT 04/00 A2985 RMK A01 T00440001  RH  073%=      5-min Rain = 0
KTA1 220551Z 09010KT 04/00 A2985 RMK A01 T00440001  RH  073%=      5-min Rain = 0
KTA1 220552Z 09010KT 04/00 A2985 RMK A01 T00440001  RH  073%=      5-min Rain = 0
KTA1 220553Z 09011KT 04/00 A2985 RMK A01 T00440001  RH  073%=      5-min Rain = 0
KTA1 220554Z 10010KT 04/00 A2985 RMK A01 T00430000  RH  074%=      5-min Rain = 0
KTA1 220555Z 10010KT 04/00 A2985 RMK A01 T004300-0  RH  074%=      5-min Rain = 0
KTA1 220556Z 10010KT 04/00 A2985 RMK A01 T004200-0  RH  074%=      5-min Rain = 0
KTA1 220557Z 10009KT 04/M00 A2985 RMK A01 T00421001  RH  074%=      5-min Rain = 0
KTA1 220558Z 10009KT 04/M00 A2985 RMK A01 T00411001  RH  074%=      5-min Rain = 0
KTA1 220559Z 10009KT 04/M00 A2985 RMK A01 T00401001  RH  074%=      5-min Rain = 0

Page generated in 0.0773 seconds.